Wetterdaten: Mittwoch, 12.10.2022
Datum Zeit Temp. 2m Temp +5 cm Feuchte A. Luftdruck Regen Wind Richtung Richtung Sonnenschein UV Solar Taupunkt Windchill Windben
12.10.2022 00:00 0,2 C -1,7 C 91 % 1027,5 hPa 0,0 l/m 0,8 km/h (0 Bft) N-NO 12 0 min 0,0 UV-I 0 W/m -1,1 C 0,2 C 1,6 km/h (1 Bft)
12.10.2022 00:03 0,3 C -1,7 C 92 % 1027,4 hPa 0,0 l/m 0,2 km/h (0 Bft) N-NO 12 0 min 0,0 UV-I 0 W/m -0,8 C 0,3 C 1,6 km/h (1 Bft)
12.10.2022 00:06 0,6 C -1,1 C 92 % 1027,5 hPa 0,0 l/m 0,5 km/h (0 Bft) N-NO 12 0 min 0,0 UV-I 0 W/m -0,5 C 0,6 C 1,6 km/h (1 Bft)
12.10.2022 00:09 0,4 C -1,7 C 91 % 1027,5 hPa 0,0 l/m 0,1 km/h (0 Bft) N-NO 12 0 min 0,0 UV-I 0 W/m -0,9 C 0,4 C 1,6 km/h (1 Bft)
12.10.2022 00:12 0,2 C -1,7 C 91 % 1027,4 hPa 0,0 l/m 0,0 km/h (0 Bft) N-NO 12 0 min 0,0 UV-I 0 W/m -1,1 C 0,2 C 0,0 km/h (0 Bft)
12.10.2022 00:15 0,1 C -1,7 C 91 % 1027,5 hPa 0,0 l/m 0,0 km/h (0 Bft) N-NO 12 0 min 0,0 UV-I 0 W/m -1,2 C 0,1 C 0,0 km/h (0 Bft)
12.10.2022 00:18 -0,1 C -1,7 C 91 % 1027,6 hPa 0,0 l/m 0,2 km/h (0 Bft) N-NO 12 0 min 0,0 UV-I 0 W/m -1,4 C -0,1 C 1,6 km/h (1 Bft)
12.10.2022 00:21 0,0 C -1,7 C 92 % 1027,6 hPa 0,0 l/m 0,0 km/h (0 Bft) N-NO 12 0 min 0,0 UV-I 0 W/m -1,1 C 0,0 C 0,0 km/h (0 Bft)
12.10.2022 00:24 0,1 C -1,7 C 92 % 1027,4 hPa 0,0 l/m 0,2 km/h (0 Bft) N-NO 12 0 min 0,0 UV-I 0 W/m -1,0 C 0,1 C 1,6 km/h (1 Bft)
12.10.2022 00:27 -0,1 C -1,7 C 91 % 1027,5 hPa 0,0 l/m 0,0 km/h (0 Bft) N-NO 12 0 min 0,0 UV-I 0 W/m -1,4 C -0,1 C 0,0 km/h (0 Bft)
12.10.2022 00:30 -0,1 C -1,7 C 92 % 1027,4 hPa 0,0 l/m 0,0 km/h (0 Bft) N-NO 12 0 min 0,0 UV-I 0 W/m -1,2 C -0,1 C 0,0 km/h (0 Bft)
12.10.2022 00:33 -0,1 C -1,7 C 92 % 1027,5 hPa 0,0 l/m 0,0 km/h (0 Bft) N-NO 12 0 min 0,0 UV-I 0 W/m -1,2 C -0,1 C 0,0 km/h (0 Bft)
12.10.2022 00:36 -0,1 C -1,7 C 92 % 1027,5 hPa 0,0 l/m 0,0 km/h (0 Bft) N-NO 12 0 min 0,0 UV-I 0 W/m -1,2 C -0,1 C 1,6 km/h (1 Bft)
12.10.2022 00:39 0,1 C -1,7 C 92 % 1027,5 hPa 0,0 l/m 0,0 km/h (0 Bft) N-NO 12 0 min 0,0 UV-I 0 W/m -1,0 C 0,1 C 0,0 km/h (0 Bft)
12.10.2022 00:42 0,0 C -2,2 C 92 % 1027,5 hPa 0,0 l/m 0,0 km/h (0 Bft) N-NO 12 0 min 0,0 UV-I 0 W/m -1,1 C 0,0 C 0,0 km/h (0 Bft)
12.10.2022 00:45 -0,2 C -2,2 C 91 % 1027,5 hPa 0,0 l/m 0,0 km/h (0 Bft) N-NO 12 0 min 0,0 UV-I 0 W/m -1,5 C -0,2 C 0,0 km/h (0 Bft)
12.10.2022 00:48 -0,2 C -1,7 C 92 % 1027,4 hPa 0,0 l/m 0,0 km/h (0 Bft) N-NO 12 0 min 0,0 UV-I 0 W/m -1,3 C -0,2 C 0,0 km/h (0 Bft)
12.10.2022 00:51 -0,1 C -2,2 C 92 % 1027,5 hPa 0,0 l/m 0,0 km/h (0 Bft) N-NO 12 0 min 0,0 UV-I 0 W/m -1,2 C -0,1 C 0,0 km/h (0 Bft)
12.10.2022 00:54 -0,1 C -1,7 C 92 % 1027,5 hPa 0,0 l/m 0,0 km/h (0 Bft) N-NO 12 0 min 0,0 UV-I 0 W/m -1,2 C -0,1 C 0,0 km/h (0 Bft)
12.10.2022 00:57 -0,1 C -1,7 C 92 % 1027,5 hPa 0,0 l/m 0,0 km/h (0 Bft) N-NO 12 0 min 0,0 UV-I 0 W/m -1,2 C -0,1 C 0,0 km/h (0 Bft)
12.10.2022 01:00 -0,3 C -1,7 C 91 % 1027,6 hPa 0,0 l/m 0,0 km/h (0 Bft) N-NO 12 0 min 0,0 UV-I 0 W/m -1,6 C -0,3 C 0,0 km/h (0 Bft)
12.10.2022 01:03 -0,4 C -1,7 C 92 % 1027,6 hPa 0,0 l/m 0,0 km/h (0 Bft) N-NO 12 0 min 0,0 UV-I 0 W/m -1,5 C -0,4 C 0,0 km/h (0 Bft)
12.10.2022 01:06 -0,3 C -2,2 C 92 % 1027,7 hPa 0,0 l/m 0,0 km/h (0 Bft) N-NO 12 0 min 0,0 UV-I 0 W/m -1,4 C -0,3 C 0,0 km/h (0 Bft)
12.10.2022 01:09 -0,4 C -2,2 C 92 % 1027,7 hPa 0,0 l/m 0,0 km/h (0 Bft) N-NO 12 0 min 0,0 UV-I 0 W/m -1,5 C -0,4 C 0,0 km/h (0 Bft)
12.10.2022 01:12 -0,4 C -2,2 C 92 % 1027,7 hPa 0,0 l/m 0,0 km/h (0 Bft) N-NO 12 0 min 0,0 UV-I 0 W/m -1,5 C -0,4 C 0,0 km/h (0 Bft)
12.10.2022 01:15 -0,5 C -2,2 C 91 % 1027,7 hPa 0,0 l/m 0,0 km/h (0 Bft) N-NO 12 0 min 0,0 UV-I 0 W/m -1,8 C -0,5 C 0,0 km/h (0 Bft)
12.10.2022 01:18 -0,6 C -2,2 C 91 % 1027,7 hPa 0,0 l/m 0,0 km/h (0 Bft) N-NO 12 0 min 0,0 UV-I 0 W/m -1,9 C -0,6 C 0,0 km/h (0 Bft)
12.10.2022 01:21 -0,7 C -2,2 C 92 % 1027,7 hPa 0,0 l/m 0,0 km/h (0 Bft) N-NO 12 0 min 0,0 UV-I 0 W/m -1,8 C -0,7 C 0,0 km/h (0 Bft)
12.10.2022 01:24 -0,6 C -2,2 C 92 % 1027,7 hPa 0,0 l/m 0,0 km/h (0 Bft) N-NO 12 0 min 0,0 UV-I 0 W/m -1,7 C -0,6 C 0,0 km/h (0 Bft)
12.10.2022 01:27 -0,2 C -1,7 C 92 % 1027,7 hPa 0,0 l/m 0,0 km/h (0 Bft) N-NO 12 0 min 0,0 UV-I 0 W/m -1,3 C -0,2 C 0,0 km/h (0 Bft)
12.10.2022 01:30 -0,2 C -2,2 C 92 % 1027,7 hPa 0,0 l/m 0,0 km/h (0 Bft) N-NO 12 0 min 0,0 UV-I 0 W/m -1,3 C -0,2 C 0,0 km/h (0 Bft)
12.10.2022 01:33 -0,2 C -2,2 C 92 % 1027,7 hPa 0,0 l/m 0,0 km/h (0 Bft) N-NO 12 0 min 0,0 UV-I 0 W/m -1,3 C -0,2 C 0,0 km/h (0 Bft)
12.10.2022 01:36 -0,2 C -2,2 C 92 % 1027,7 hPa 0,0 l/m 0,0 km/h (0 Bft) N-NO 12 0 min 0,0 UV-I 0 W/m -1,3 C -0,2 C 0,0 km/h (0 Bft)
12.10.2022 01:39 -0,3 C -2,2 C 92 % 1027,8 hPa 0,0 l/m 0,0 km/h (0 Bft) N-NO 12 0 min 0,0 UV-I 0 W/m -1,4 C -0,3 C 0,0 km/h (0 Bft)
12.10.2022 01:42 -0,2 C -2,2 C 92 % 1027,6 hPa 0,0 l/m 0,0 km/h (0 Bft) N-NO 12 0 min 0,0 UV-I 0 W/m -1,3 C -0,2 C 0,0 km/h (0 Bft)
12.10.2022 01:45 -0,4 C -2,2 C 92 % 1027,7 hPa 0,0 l/m 0,0 km/h (0 Bft) N-NO 12 0 min 0,0 UV-I 0 W/m -1,5 C -0,4 C 0,0 km/h (0 Bft)
12.10.2022 01:48 -0,7 C -2,2 C 92 % 1027,7 hPa 0,0 l/m 0,0 km/h (0 Bft) N-NO 12 0 min 0,0 UV-I 0 W/m -1,8 C -0,7 C 0,0 km/h (0 Bft)
12.10.2022 01:51 -0,8 C -2,8 C 92 % 1027,6 hPa 0,0 l/m 0,0 km/h (0 Bft) N-NO 12 0 min 0,0 UV-I 0 W/m -1,9 C -0,8 C 0,0 km/h (0 Bft)
12.10.2022 01:54 -0,8 C -2,2 C 92 % 1027,7 hPa 0,0 l/m 0,0 km/h (0 Bft) N-NO 12 0 min 0,0 UV-I 0 W/m -1,9 C -0,8 C 0,0 km/h (0 Bft)
12.10.2022 01:57 -0,8 C -2,2 C 92 % 1027,6 hPa 0,0 l/m 0,0 km/h (0 Bft) N-NO 12 0 min 0,0 UV-I 0 W/m -1,9 C -0,8 C 0,0 km/h (0 Bft)
12.10.2022 02:00 -0,8 C -2,2 C 92 % 1027,7 hPa 0,0 l/m 0,0 km/h (0 Bft) N-NO 12 0 min 0,0 UV-I 0 W/m -1,9 C -0,8 C 0,0 km/h (0 Bft)
12.10.2022 02:03 -0,6 C -2,2 C 92 % 1027,6 hPa 0,0 l/m 0,0 km/h (0 Bft) N-NO 12 0 min 0,0 UV-I 0 W/m -1,7 C -0,6 C 0,0 km/h (0 Bft)
12.10.2022 02:06 -0,6 C -2,2 C 92 % 1027,7 hPa 0,0 l/m 0,0 km/h (0 Bft) N-NO 12 0 min 0,0 UV-I 0 W/m -1,7 C -0,6 C 0,0 km/h (0 Bft)
12.10.2022 02:09 -0,4 C -2,2 C 92 % 1027,6 hPa 0,0 l/m 0,0 km/h (0 Bft) N-NO 12 0 min 0,0 UV-I 0 W/m -1,5 C -0,4 C 0,0 km/h (0 Bft)
12.10.2022 02:12 -0,3 C -2,2 C 92 % 1027,6 hPa 0,0 l/m 0,0 km/h (0 Bft) N-NO 12 0 min 0,0 UV-I 0 W/m -1,4 C -0,3 C 0,0 km/h (0 Bft)
12.10.2022 02:15 -0,1 C -2,2 C 92 % 1027,6 hPa 0,0 l/m 0,0 km/h (0 Bft) N-NO 12 0 min 0,0 UV-I 0 W/m -1,2 C -0,1 C 0,0 km/h (0 Bft)
12.10.2022 02:18 -0,4 C -2,2 C 92 % 1027,6 hPa 0,0 l/m 0,0 km/h (0 Bft) N-NO 12 0 min 0,0 UV-I 0 W/m -1,5 C -0,4 C 0,0 km/h (0 Bft)
12.10.2022 02:21 -0,6 C -2,2 C 92 % 1027,6 hPa 0,0 l/m 0,0 km/h (0 Bft) N-NO 12 0 min 0,0 UV-I 0 W/m -1,7 C -0,6 C 0,0 km/h (0 Bft)
12.10.2022 02:24 -0,6 C -2,2 C 92 % 1027,6 hPa 0,0 l/m 0,0 km/h (0 Bft) N-NO 12 0 min 0,0 UV-I 0 W/m -1,7 C -0,6 C 0,0 km/h (0 Bft)
12.10.2022 02:27 -0,8 C -2,2 C 92 % 1027,5 hPa 0,0 l/m 0,0 km/h (0 Bft) N-NO 12 0 min 0,0 UV-I 0 W/m -1,9 C -0,8 C 0,0 km/h (0 Bft)
12.10.2022 02:30 -0,8 C -2,2 C 92 % 1027,5 hPa 0,0 l/m 0,0 km/h (0 Bft) N-NO 12 0 min 0,0 UV-I 0 W/m -1,9 C -0,8 C 0,0 km/h (0 Bft)
12.10.2022 02:33 -0,8 C -2,2 C 92 % 1027,6 hPa 0,0 l/m 0,0 km/h (0 Bft) N-NO 12 0 min 0,0 UV-I 0 W/m -1,9 C -0,8 C 0,0 km/h (0 Bft)
12.10.2022 02:36 -0,8 C -2,2 C 92 % 1027,5 hPa 0,0 l/m 0,0 km/h (0 Bft) N-NO 12 0 min 0,0 UV-I 0 W/m -1,9 C -0,8 C 0,0 km/h (0 Bft)
12.10.2022 02:39 -0,8 C -2,8 C 92 % 1027,5 hPa 0,0 l/m 0,0 km/h (0 Bft) N-NO 12 0 min 0,0 UV-I 0 W/m -1,9 C -0,8 C 0,0 km/h (0 Bft)
12.10.2022 02:42 -0,8 C -2,2 C 92 % 1027,6 hPa 0,0 l/m 0,0 km/h (0 Bft) N-NO 12 0 min 0,0 UV-I 0 W/m -1,9 C -0,8 C 0,0 km/h (0 Bft)
12.10.2022 02:45 -0,8 C -2,8 C 92 % 1027,5 hPa 0,0 l/m 0,0 km/h (0 Bft) N-NO 12 0 min 0,0 UV-I 0 W/m -1,9 C -0,8 C 0,0 km/h (0 Bft)
12.10.2022 02:48 -1,0 C -2,2 C 92 % 1027,4 hPa 0,0 l/m 0,0 km/h (0 Bft) N-NO 12 0 min 0,0 UV-I 0 W/m -2,1 C -1,0 C 0,0 km/h (0 Bft)
12.10.2022 02:51 -0,9 C -2,2 C 92 % 1027,5 hPa 0,0 l/m 0,0 km/h (0 Bft) N-NO 12 0 min 0,0 UV-I 0 W/m -2,0 C -0,9 C 0,0 km/h (0 Bft)
12.10.2022 02:54 -0,9 C -2,2 C 92 % 1027,4 hPa 0,0 l/m 0,0 km/h (0 Bft) N-NO 12 0 min 0,0 UV-I 0 W/m -2,0 C -0,9 C 0,0 km/h (0 Bft)
12.10.2022 02:57 -0,9 C -2,2 C 92 % 1027,4 hPa 0,0 l/m 0,0 km/h (0 Bft) N-NO 12 0 min 0,0 UV-I 0 W/m -2,0 C -0,9 C 0,0 km/h (0 Bft)
12.10.2022 03:00 -0,9 C -2,8 C 92 % 1027,4 hPa 0,0 l/m 0,0 km/h (0 Bft) N-NO 12 0 min 0,0 UV-I 0 W/m -2,0 C -0,9 C 0,0 km/h (0 Bft)
12.10.2022 03:03 -0,9 C -2,8 C 92 % 1027,4 hPa 0,0 l/m 0,0 km/h (0 Bft) N-NO 12 0 min 0,0 UV-I 0 W/m -2,0 C -0,9 C 0,0 km/h (0 Bft)
12.10.2022 03:06 -0,9 C -2,8 C 92 % 1027,4 hPa 0,0 l/m 0,0 km/h (0 Bft) N-NO 12 0 min 0,0 UV-I 0 W/m -2,0 C -0,9 C 0,0 km/h (0 Bft)
12.10.2022 03:09 -0,9 C -2,8 C 92 % 1027,4 hPa 0,0 l/m 0,0 km/h (0 Bft) N-NO 12 0 min 0,0 UV-I 0 W/m -2,0 C -0,9 C 0,0 km/h (0 Bft)
12.10.2022 03:12 -0,9 C -2,8 C 92 % 1027,5 hPa 0,0 l/m 0,0 km/h (0 Bft) N-NO 12 0 min 0,0 UV-I 0 W/m -2,0 C -0,9 C 0,0 km/h (0 Bft)
12.10.2022 03:15 -1,1 C -2,8 C 92 % 1027,4 hPa 0,0 l/m 0,0 km/h (0 Bft) N-NO 12 0 min 0,0 UV-I 0 W/m -2,2 C -1,1 C 0,0 km/h (0 Bft)
12.10.2022 03:18 -1,1 C -2,8 C 92 % 1027,4 hPa 0,0 l/m 0,0 km/h (0 Bft) N-NO 12 0 min 0,0 UV-I 0 W/m -2,2 C -1,1 C 0,0 km/h (0 Bft)
12.10.2022 03:21 -1,0 C -2,2 C 92 % 1027,4 hPa 0,0 l/m 0,0 km/h (0 Bft) N-NO 12 0 min 0,0 UV-I 0 W/m -2,1 C -1,0 C 0,0 km/h (0 Bft)
12.10.2022 03:24 -1,1 C -2,8 C 92 % 1027,4 hPa 0,0 l/m 0,0 km/h (0 Bft) N-NO 12 0 min 0,0 UV-I 0 W/m -2,2 C -1,1 C 0,0 km/h (0 Bft)
12.10.2022 03:27 -0,9 C -2,2 C 92 % 1027,4 hPa 0,0 l/m 0,0 km/h (0 Bft) N-NO 12 0 min 0,0 UV-I 0 W/m -2,0 C -0,9 C 0,0 km/h (0 Bft)
12.10.2022 03:30 -0,8 C -2,2 C 92 % 1027,4 hPa 0,0 l/m 0,0 km/h (0 Bft) N-NO 12 0 min 0,0 UV-I 0 W/m -1,9 C -0,8 C 0,0 km/h (0 Bft)
12.10.2022 03:33 -0,8 C -2,8 C 92 % 1027,4 hPa 0,0 l/m 0,0 km/h (0 Bft) N-NO 12 0 min 0,0 UV-I 0 W/m -1,9 C -0,8 C 0,0 km/h (0 Bft)
12.10.2022 03:36 -0,7 C -2,8 C 92 % 1027,4 hPa 0,0 l/m 0,0 km/h (0 Bft) N-NO 12 0 min 0,0 UV-I 0 W/m -1,8 C -0,7 C 0,0 km/h (0 Bft)
12.10.2022 03:39 -1,1 C -2,8 C 92 % 1027,4 hPa 0,0 l/m 0,0 km/h (0 Bft) N-NO 12 0 min 0,0 UV-I 0 W/m -2,2 C -1,1 C 0,0 km/h (0 Bft)
12.10.2022 03:42 -1,3 C -2,8 C 92 % 1027,3 hPa 0,0 l/m 0,0 km/h (0 Bft) N-NO 12 0 min 0,0 UV-I 0 W/m -2,4 C -1,3 C 0,0 km/h (0 Bft)
12.10.2022 03:45 -1,4 C -2,8 C 92 % 1027,3 hPa 0,0 l/m 0,0 km/h (0 Bft) N-NO 12 0 min 0,0 UV-I 0 W/m -2,5 C -1,4 C 0,0 km/h (0 Bft)
12.10.2022 03:48 -1,4 C -2,8 C 92 % 1027,3 hPa 0,0 l/m 0,0 km/h (0 Bft) N-NO 12 0 min 0,0 UV-I 0 W/m -2,5 C -1,4 C 0,0 km/h (0 Bft)
12.10.2022 03:51 -1,4 C -2,8 C 92 % 1027,3 hPa 0,0 l/m 0,0 km/h (0 Bft) N-NO 12 0 min 0,0 UV-I 0 W/m -2,5 C -1,4 C 0,0 km/h (0 Bft)
12.10.2022 03:54 -1,4 C -2,8 C 92 % 1027,3 hPa 0,0 l/m 0,0 km/h (0 Bft) N-NO 12 0 min 0,0 UV-I 0 W/m -2,5 C -1,4 C 0,0 km/h (0 Bft)
12.10.2022 03:57 -1,3 C -3,3 C 92 % 1027,2 hPa 0,0 l/m 0,0 km/h (0 Bft) N-NO 12 0 min 0,0 UV-I 0 W/m -2,4 C -1,3 C 0,0 km/h (0 Bft)
12.10.2022 04:00 -1,4 C -2,8 C 92 % 1027,3 hPa 0,0 l/m 0,0 km/h (0 Bft) N-NO 12 0 min 0,0 UV-I 0 W/m -2,5 C -1,4 C 0,0 km/h (0 Bft)
12.10.2022 04:03 -1,4 C -2,8 C 92 % 1027,3 hPa 0,0 l/m 0,0 km/h (0 Bft) N-NO 12 0 min 0,0 UV-I 0 W/m -2,5 C -1,4 C 0,0 km/h (0 Bft)
12.10.2022 04:06 -1,6 C -2,8 C 92 % 1027,3 hPa 0,0 l/m 0,0 km/h (0 Bft) N-NO 12 0 min 0,0 UV-I 0 W/m -2,7 C -1,6 C 0,0 km/h (0 Bft)
12.10.2022 04:09 -1,6 C -2,8 C 92 % 1027,3 hPa 0,0 l/m 0,0 km/h (0 Bft) N-NO 12 0 min 0,0 UV-I 0 W/m -2,7 C -1,6 C 0,0 km/h (0 Bft)
12.10.2022 04:12 -1,6 C -2,8 C 92 % 1027,3 hPa 0,0 l/m 0,0 km/h (0 Bft) N-NO 12 0 min 0,0 UV-I 0 W/m -2,7 C -1,6 C 0,0 km/h (0 Bft)
12.10.2022 04:15 -1,4 C -2,8 C 92 % 1027,2 hPa 0,0 l/m 0,0 km/h (0 Bft) N-NO 12 0 min 0,0 UV-I 0 W/m -2,5 C -1,4 C 0,0 km/h (0 Bft)
12.10.2022 04:18 -1,2 C -2,8 C 92 % 1027,3 hPa 0,0 l/m 0,0 km/h (0 Bft) N-NO 12 0 min 0,0 UV-I 0 W/m -2,3 C -1,2 C 0,0 km/h (0 Bft)
12.10.2022 04:21 -1,2 C -2,8 C 92 % 1027,2 hPa 0,0 l/m 0,0 km/h (0 Bft) N-NO 12 0 min 0,0 UV-I 0 W/m -2,3 C -1,2 C 0,0 km/h (0 Bft)
12.10.2022 04:24 -1,3 C -2,8 C 92 % 1027,2 hPa 0,0 l/m 0,0 km/h (0 Bft) N-NO 12 0 min 0,0 UV-I 0 W/m -2,4 C -1,3 C 0,0 km/h (0 Bft)
12.10.2022 04:27 -1,5 C -2,8 C 92 % 1027,0 hPa 0,0 l/m 0,0 km/h (0 Bft) N-NO 12 0 min 0,0 UV-I 0 W/m -2,6 C -1,5 C 0,0 km/h (0 Bft)
12.10.2022 04:30 -1,7 C -2,8 C 92 % 1027,1 hPa 0,0 l/m 0,0 km/h (0 Bft) N-NO 12 0 min 0,0 UV-I 0 W/m -2,8 C -1,7 C 0,0 km/h (0 Bft)
12.10.2022 04:33 -1,6 C -2,8 C 92 % 1027,1 hPa 0,0 l/m 0,0 km/h (0 Bft) N-NO 12 0 min 0,0 UV-I 0 W/m -2,7 C -1,6 C 0,0 km/h (0 Bft)
12.10.2022 04:36 -1,4 C -2,8 C 92 % 1026,9 hPa 0,0 l/m 0,0 km/h (0 Bft) N-NO 12 0 min 0,0 UV-I 0 W/m -2,5 C -1,4 C 0,0 km/h (0 Bft)
12.10.2022 04:39 -1,4 C -2,8 C 92 % 1027,0 hPa 0,0 l/m 0,0 km/h (0 Bft) N-NO 12 0 min 0,0 UV-I 0 W/m -2,5 C -1,4 C 0,0 km/h (0 Bft)
12.10.2022 04:42 -1,4 C -2,8 C 92 % 1027,0 hPa 0,0 l/m 0,0 km/h (0 Bft) N-NO 12 0 min 0,0 UV-I 0 W/m -2,5 C -1,4 C 0,0 km/h (0 Bft)
12.10.2022 04:45 -1,3 C -2,8 C 92 % 1027,0 hPa 0,0 l/m 0,0 km/h (0 Bft) N-NO 12 0 min 0,0 UV-I 0 W/m -2,4 C -1,3 C 0,0 km/h (0 Bft)
12.10.2022 04:48 -1,2 C -2,8 C 92 % 1026,8 hPa 0,0 l/m 0,0 km/h (0 Bft) N-NO 12 0 min 0,0 UV-I 0 W/m -2,3 C -1,2 C 0,0 km/h (0 Bft)
12.10.2022 04:51 -1,1 C -2,8 C 92 % 1026,9 hPa 0,0 l/m 0,0 km/h (0 Bft) N-NO 12 0 min 0,0 UV-I 0 W/m -2,2 C -1,1 C 0,0 km/h (0 Bft)
12.10.2022 04:54 -1,0 C -2,8 C 92 % 1026,9 hPa 0,0 l/m 0,0 km/h (0 Bft) N-NO 12 0 min 0,0 UV-I 0 W/m -2,1 C -1,0 C 0,0 km/h (0 Bft)
12.10.2022 04:57 -1,2 C -2,8 C 92 % 1026,9 hPa 0,0 l/m 0,0 km/h (0 Bft) N-NO 12 0 min 0,0 UV-I 0 W/m -2,3 C -1,2 C 0,0 km/h (0 Bft)
12.10.2022 05:00 -1,3 C -2,8 C 92 % 1026,8 hPa 0,0 l/m 0,0 km/h (0 Bft) N-NO 12 0 min 0,0 UV-I 0 W/m -2,4 C -1,3 C 0,0 km/h (0 Bft)
12.10.2022 05:03 -1,3 C -2,8 C 92 % 1026,8 hPa 0,0 l/m 0,0 km/h (0 Bft) N-NO 12 0 min 0,0 UV-I 0 W/m -2,4 C -1,3 C 0,0 km/h (0 Bft)
12.10.2022 05:06 -1,4 C -2,8 C 92 % 1026,9 hPa 0,0 l/m 0,0 km/h (0 Bft) N-NO 12 0 min 0,0 UV-I 0 W/m -2,5 C -1,4 C 0,0 km/h (0 Bft)
12.10.2022 05:09 -1,3 C -2,8 C 92 % 1026,8 hPa 0,0 l/m 0,0 km/h (0 Bft) N-NO 12 0 min 0,0 UV-I 0 W/m -2,4 C -1,3 C 0,0 km/h (0 Bft)
12.10.2022 05:12 -1,4 C -3,3 C 92 % 1026,8 hPa 0,0 l/m 0,0 km/h (0 Bft) N-NO 12 0 min 0,0 UV-I 0 W/m -2,5 C -1,4 C 0,0 km/h (0 Bft)
12.10.2022 05:15 -1,5 C -2,8 C 92 % 1026,8 hPa 0,0 l/m 0,0 km/h (0 Bft) N-NO 12 0 min 0,0 UV-I 0 W/m -2,6 C -1,5 C 0,0 km/h (0 Bft)
12.10.2022 05:18 -1,6 C -2,8 C 92 % 1026,8 hPa 0,0 l/m 0,0 km/h (0 Bft) N-NO 12 0 min 0,0 UV-I 0 W/m -2,7 C -1,6 C 0,0 km/h (0 Bft)
12.10.2022 05:21 -1,6 C -2,8 C 92 % 1026,7 hPa 0,0 l/m 0,0 km/h (0 Bft) N-NO 12 0 min 0,0 UV-I 0 W/m -2,7 C -1,6 C 0,0 km/h (0 Bft)
12.10.2022 05:24 -1,8 C -2,8 C 92 % 1026,8 hPa 0,0 l/m 0,0 km/h (0 Bft) N-NO 12 0 min 0,0 UV-I 0 W/m -2,9 C -1,8 C 0,0 km/h (0 Bft)
12.10.2022 05:27 -1,9 C -2,8 C 92 % 1026,7 hPa 0,0 l/m 0,0 km/h (0 Bft) N-NO 12 0 min 0,0 UV-I 0 W/m -3,0 C -1,9 C 0,0 km/h (0 Bft)
12.10.2022 05:30 -1,9 C -2,8 C 92 % 1026,7 hPa 0,0 l/m 0,0 km/h (0 Bft) N-NO 12 0 min 0,0 UV-I 0 W/m -3,0 C -1,9 C 0,0 km/h (0 Bft)
12.10.2022 05:33 -1,8 C -2,8 C 92 % 1026,8 hPa 0,0 l/m 0,0 km/h (0 Bft) N-NO 12 0 min 0,0 UV-I 0 W/m -2,9 C -1,8 C 0,0 km/h (0 Bft)
12.10.2022 05:36 -1,8 C -2,8 C 92 % 1026,7 hPa 0,0 l/m 0,0 km/h (0 Bft) N-NO 12 0 min 0,0 UV-I 0 W/m -2,9 C -1,8 C 0,0 km/h (0 Bft)
12.10.2022 05:39 -1,8 C -2,8 C 92 % 1026,9 hPa 0,0 l/m 0,0 km/h (0 Bft) N-NO 12 0 min 0,0 UV-I 0 W/m -2,9 C -1,8 C 0,0 km/h (0 Bft)
12.10.2022 05:42 -1,9 C -2,8 C 92 % 1026,8 hPa 0,0 l/m 0,0 km/h (0 Bft) N-NO 12 0 min 0,0 UV-I 0 W/m -3,0 C -1,9 C 0,0 km/h (0 Bft)
12.10.2022 05:45 -1,8 C -2,8 C 92 % 1026,8 hPa 0,0 l/m 0,0 km/h (0 Bft) N-NO 12 0 min 0,0 UV-I 0 W/m -2,9 C -1,8 C 0,0 km/h (0 Bft)
12.10.2022 05:48 -1,7 C -2,8 C 93 % 1026,8 hPa 0,0 l/m 0,0 km/h (0 Bft) N-NO 12 0 min 0,0 UV-I 0 W/m -2,7 C -1,7 C 0,0 km/h (0 Bft)
12.10.2022 05:51 -1,7 C -2,8 C 93 % 1026,8 hPa 0,0 l/m 0,0 km/h (0 Bft) N-NO 12 0 min 0,0 UV-I 0 W/m -2,7 C -1,7 C 0,0 km/h (0 Bft)
12.10.2022 05:54 -1,6 C -2,8 C 92 % 1026,7 hPa 0,0 l/m 0,0 km/h (0 Bft) N-NO 12 0 min 0,0 UV-I 0 W/m -2,7 C -1,6 C 0,0 km/h (0 Bft)
12.10.2022 05:57 -1,4 C -2,8 C 92 % 1026,6 hPa 0,0 l/m 0,0 km/h (0 Bft) N-NO 12 0 min 0,0 UV-I 0 W/m -2,5 C -1,4 C 0,0 km/h (0 Bft)
12.10.2022 06:00 -1,1 C -2,8 C 93 % 1026,7 hPa 0,0 l/m 0,0 km/h (0 Bft) N-NO 12 0 min 0,0 UV-I 0 W/m -2,1 C -1,1 C 0,0 km/h (0 Bft)
12.10.2022 06:03 -1,1 C -2,8 C 93 % 1026,7 hPa 0,0 l/m 0,0 km/h (0 Bft) N-NO 12 0 min 0,0 UV-I 0 W/m -2,1 C -1,1 C 0,0 km/h (0 Bft)
12.10.2022 06:09 -1,5 C -2,8 C 92 % 1026,6 hPa 0,0 l/m 0,0 km/h (0 Bft) N-NO 12 0 min 0,0 UV-I 0 W/m -2,6 C -1,5 C 0,0 km/h (0 Bft)
12.10.2022 06:12 -1,7 C -2,8 C 92 % 1026,6 hPa 0,0 l/m 0,0 km/h (0 Bft) N-NO 12 0 min 0,0 UV-I 0 W/m -2,8 C -1,7 C 0,0 km/h (0 Bft)
12.10.2022 06:15 -1,8 C -2,8 C 92 % 1026,6 hPa 0,0 l/m 0,0 km/h (0 Bft) N-NO 12 0 min 0,0 UV-I 0 W/m -2,9 C -1,8 C 0,0 km/h (0 Bft)
12.10.2022 06:18 -1,8 C -3,3 C 92 % 1026,6 hPa 0,0 l/m 0,0 km/h (0 Bft) N-NO 12 0 min 0,0 UV-I 0 W/m -2,9 C -1,8 C 0,0 km/h (0 Bft)
12.10.2022 06:21 -2,0 C -3,3 C 92 % 1026,6 hPa 0,0 l/m 0,0 km/h (0 Bft) N-NO 12 0 min 0,0 UV-I 0 W/m -3,1 C -2,0 C 0,0 km/h (0 Bft)
12.10.2022 06:24 -1,9 C -2,8 C 92 % 1026,6 hPa 0,0 l/m 0,0 km/h (0 Bft) N-NO 12 0 min 0,0 UV-I 0 W/m -3,0 C -1,9 C 0,0 km/h (0 Bft)
12.10.2022 06:27 -1,7 C -2,8 C 93 % 1026,5 hPa 0,0 l/m 0,0 km/h (0 Bft) N-NO 12 0 min 0,0 UV-I 0 W/m -2,7 C -1,7 C 0,0 km/h (0 Bft)
12.10.2022 06:30 -1,5 C -2,8 C 93 % 1026,4 hPa 0,0 l/m 0,0 km/h (0 Bft) N-NO 12 0 min 0,0 UV-I 0 W/m -2,5 C -1,5 C 0,0 km/h (0 Bft)
12.10.2022 06:33 -1,4 C -2,8 C 93 % 1026,5 hPa 0,0 l/m 0,0 km/h (0 Bft) N-NO 12 0 min 0,0 UV-I 0 W/m -2,4 C -1,4 C 0,0 km/h (0 Bft)
12.10.2022 06:36 -1,3 C -2,8 C 93 % 1026,5 hPa 0,0 l/m 0,0 km/h (0 Bft) N-NO 12 0 min 0,0 UV-I 0 W/m -2,3 C -1,3 C 0,0 km/h (0 Bft)
12.10.2022 06:39 -1,2 C -2,8 C 93 % 1026,5 hPa 0,0 l/m 0,0 km/h (0 Bft) N-NO 12 0 min 0,0 UV-I 0 W/m -2,2 C -1,2 C 0,0 km/h (0 Bft)
12.10.2022 06:42 -1,4 C -2,8 C 93 % 1026,6 hPa 0,0 l/m 0,0 km/h (0 Bft) N-NO 12 0 min 0,0 UV-I 0 W/m -2,4 C -1,4 C 0,0 km/h (0 Bft)
12.10.2022 06:45 -1,8 C -2,8 C 92 % 1026,6 hPa 0,0 l/m 0,0 km/h (0 Bft) N-NO 12 0 min 0,0 UV-I 0 W/m -2,9 C -1,8 C 0,0 km/h (0 Bft)
12.10.2022 06:48 -2,1 C -3,3 C 92 % 1026,6 hPa 0,0 l/m 0,0 km/h (0 Bft) N-NO 12 0 min 0,0 UV-I 0 W/m -3,2 C -2,1 C 0,0 km/h (0 Bft)
12.10.2022 06:51 -2,1 C -3,3 C 92 % 1026,6 hPa 0,0 l/m 0,0 km/h (0 Bft) N-NO 12 0 min 0,0 UV-I 0 W/m -3,2 C -2,1 C 0,0 km/h (0 Bft)
12.10.2022 06:54 -1,9 C -3,3 C 93 % 1026,8 hPa 0,0 l/m 0,0 km/h (0 Bft) N-NO 12 0 min 0,0 UV-I 0 W/m -2,9 C -1,9 C 0,0 km/h (0 Bft)
12.10.2022 06:57 -1,8 C -3,3 C 93 % 1026,7 hPa 0,0 l/m 0,0 km/h (0 Bft) N-NO 12 0 min 0,0 UV-I 0 W/m -2,8 C -1,8 C 0,0 km/h (0 Bft)
12.10.2022 07:00 -1,6 C -3,3 C 93 % 1026,8 hPa 0,0 l/m 0,0 km/h (0 Bft) N-NO 12 0 min 0,0 UV-I 0 W/m -2,6 C -1,6 C 0,0 km/h (0 Bft)
12.10.2022 07:01 -1,6 C -3,3 C 93 % 1026,8 hPa 0,0 l/m 0,0 km/h (0 Bft) N 0 0 min 0,0 UV-I 0 W/m -2,6 C -1,6 C 0,0 km/h (0 Bft)
12.10.2022 07:03 -1,6 C -3,3 C 93 % 1026,7 hPa 0,0 l/m 0,0 km/h (0 Bft) N-NO 12 0 min 0,0 UV-I 0 W/m -2,6 C -1,6 C 0,0 km/h (0 Bft)
12.10.2022 07:06 -1,9 C -3,3 C 92 % 1026,5 hPa 0,0 l/m 0,0 km/h (0 Bft) N-NO 12 0 min 0,0 UV-I 0 W/m -3,0 C -1,9 C 0,0 km/h (0 Bft)
12.10.2022 07:09 -2,0 C -3,3 C 92 % 1026,6 hPa 0,0 l/m 0,0 km/h (0 Bft) N-NO 12 0 min 0,0 UV-I 0 W/m -3,1 C -2,0 C 0,0 km/h (0 Bft)
12.10.2022 07:12 -1,7 C -2,8 C 93 % 1026,5 hPa 0,0 l/m 0,0 km/h (0 Bft) N-NO 12 0 min 0,0 UV-I 0 W/m -2,7 C -1,7 C 0,0 km/h (0 Bft)
12.10.2022 07:15 -1,6 C -2,8 C 93 % 1026,5 hPa 0,0 l/m 0,0 km/h (0 Bft) N-NO 12 0 min 0,0 UV-I 0 W/m -2,6 C -1,6 C 0,0 km/h (0 Bft)
12.10.2022 07:18 -1,5 C -2,8 C 93 % 1026,5 hPa 0,0 l/m 0,0 km/h (0 Bft) N-NO 12 0 min 0,0 UV-I 0 W/m -2,5 C -1,5 C 0,0 km/h (0 Bft)
12.10.2022 07:21 -1,7 C -2,8 C 93 % 1026,5 hPa 0,0 l/m 0,0 km/h (0 Bft) N-NO 12 0 min 0,0 UV-I 0 W/m -2,7 C -1,7 C 0,0 km/h (0 Bft)
12.10.2022 07:24 -1,8 C -3,3 C 93 % 1026,6 hPa 0,0 l/m 0,0 km/h (0 Bft) N-NO 12 0 min 0,0 UV-I 0 W/m -2,8 C -1,8 C 0,0 km/h (0 Bft)
12.10.2022 07:27 -1,9 C -3,3 C 92 % 1026,6 hPa 0,0 l/m 0,0 km/h (0 Bft) N-NO 12 0 min 0,0 UV-I 0 W/m -3,0 C -1,9 C 0,0 km/h (0 Bft)
12.10.2022 07:30 -2,1 C -3,3 C 92 % 1026,5 hPa 0,0 l/m 0,0 km/h (0 Bft) N-NO 12 0 min 0,0 UV-I 0 W/m -3,2 C -2,1 C 0,0 km/h (0 Bft)
12.10.2022 07:33 -2,2 C -3,3 C 92 % 1026,5 hPa 0,0 l/m 0,0 km/h (0 Bft) N-NO 12 0 min 0,0 UV-I 0 W/m -3,3 C -2,2 C 0,0 km/h (0 Bft)
12.10.2022 07:36 -2,1 C -2,8 C 92 % 1026,5 hPa 0,0 l/m 0,0 km/h (0 Bft) N-NO 12 0 min 0,0 UV-I 0 W/m -3,2 C -2,1 C 0,0 km/h (0 Bft)
12.10.2022 07:39 -2,0 C -2,8 C 92 % 1026,5 hPa 0,0 l/m 0,0 km/h (0 Bft) N-NO 12 0 min 0,0 UV-I 0 W/m -3,1 C -2,0 C 0,0 km/h (0 Bft)
12.10.2022 07:42 -1,7 C -2,8 C 93 % 1026,5 hPa 0,0 l/m 0,0 km/h (0 Bft) N-NO 12 0 min 0,0 UV-I 0 W/m -2,7 C -1,7 C 0,0 km/h (0 Bft)
12.10.2022 07:45 -1,4 C -2,8 C 93 % 1026,5 hPa 0,0 l/m 0,0 km/h (0 Bft) N-NO 12 0 min 0,0 UV-I 0 W/m -2,4 C -1,4 C 0,0 km/h (0 Bft)
12.10.2022 07:48 -1,4 C -2,8 C 93 % 1026,6 hPa 0,0 l/m 0,0 km/h (0 Bft) N-NO 12 0 min 0,0 UV-I 0 W/m -2,4 C -1,4 C 0,0 km/h (0 Bft)
12.10.2022 07:51 -1,5 C -2,8 C 93 % 1026,6 hPa 0,0 l/m 0,0 km/h (0 Bft) N-NO 12 0 min 0,0 UV-I 0 W/m -2,5 C -1,5 C 0,0 km/h (0 Bft)
12.10.2022 07:54 -1,5 C -2,8 C 93 % 1026,5 hPa 0,0 l/m 0,0 km/h (0 Bft) N-NO 12 0 min 0,0 UV-I 0 W/m -2,5 C -1,5 C 0,0 km/h (0 Bft)
12.10.2022 07:57 -1,6 C -2,8 C 93 % 1026,5 hPa 0,0 l/m 0,0 km/h (0 Bft) N-NO 12 0 min 0,0 UV-I 3 W/m -2,6 C -1,6 C 0,0 km/h (0 Bft)
12.10.2022 08:00 -1,7 C -2,8 C 93 % 1026,7 hPa 0,0 l/m 0,0 km/h (0 Bft) N-NO 12 0 min 0,0 UV-I 5 W/m -2,7 C -1,7 C 0,0 km/h (0 Bft)
12.10.2022 08:03 -1,8 C -2,8 C 92 % 1026,6 hPa 0,0 l/m 0,0 km/h (0 Bft) N-NO 12 0 min 0,0 UV-I 7 W/m -2,9 C -1,8 C 0,0 km/h (0 Bft)
12.10.2022 08:06 -1,9 C -2,8 C 92 % 1026,7 hPa 0,0 l/m 0,0 km/h (0 Bft) N-NO 12 0 min 0,0 UV-I 9 W/m -3,0 C -1,9 C 0,0 km/h (0 Bft)
12.10.2022 08:09 -2,1 C -2,8 C 93 % 1026,6 hPa 0,0 l/m 0,0 km/h (0 Bft) N-NO 12 0 min 0,0 UV-I 11 W/m -3,1 C -2,1 C 0,0 km/h (0 Bft)
12.10.2022 08:12 -2,0 C -2,8 C 92 % 1026,6 hPa 0,0 l/m 0,0 km/h (0 Bft) N-NO 12 0 min 0,0 UV-I 11 W/m -3,1 C -2,0 C 0,0 km/h (0 Bft)
12.10.2022 08:15 -1,8 C -2,8 C 93 % 1026,7 hPa 0,0 l/m 0,0 km/h (0 Bft) N-NO 12 0 min 0,0 UV-I 12 W/m -2,8 C -1,8 C 0,0 km/h (0 Bft)
12.10.2022 08:18 -1,7 C -2,8 C 93 % 1026,7 hPa 0,0 l/m 0,0 km/h (0 Bft) N-NO 12 0 min 0,0 UV-I 13 W/m -2,7 C -1,7 C 0,0 km/h (0 Bft)
12.10.2022 08:21 -1,6 C -2,8 C 93 % 1026,5 hPa 0,0 l/m 0,0 km/h (0 Bft) N-NO 12 0 min 0,0 UV-I 15 W/m -2,6 C -1,6 C 0,0 km/h (0 Bft)
12.10.2022 08:24 -1,7 C -2,8 C 93 % 1026,7 hPa 0,0 l/m 0,0 km/h (0 Bft) N-NO 12 0 min 0,0 UV-I 16 W/m -2,7 C -1,7 C 0,0 km/h (0 Bft)
12.10.2022 08:27 -1,8 C -2,8 C 93 % 1026,7 hPa 0,0 l/m 0,0 km/h (0 Bft) N-NO 12 0 min 0,0 UV-I 17 W/m -2,8 C -1,8 C 0,0 km/h (0 Bft)
12.10.2022 08:30 -1,8 C -2,2 C 92 % 1026,6 hPa 0,0 l/m 0,0 km/h (0 Bft) N-NO 12 0 min 0,0 UV-I 18 W/m -2,9 C -1,8 C 0,0 km/h (0 Bft)
12.10.2022 08:33 -1,7 C -2,2 C 93 % 1026,6 hPa 0,0 l/m 0,0 km/h (0 Bft) N-NO 12 0 min 0,0 UV-I 18 W/m -2,7 C -1,7 C 0,0 km/h (0 Bft)
12.10.2022 08:36 -1,6 C -2,2 C 93 % 1026,6 hPa 0,0 l/m 0,0 km/h (0 Bft) N-NO 12 0 min 0,0 UV-I 19 W/m -2,6 C -1,6 C 0,0 km/h (0 Bft)
12.10.2022 08:39 -1,3 C -2,2 C 93 % 1026,7 hPa 0,0 l/m 0,0 km/h (0 Bft) N-NO 12 0 min 0,0 UV-I 20 W/m -2,3 C -1,3 C 0,0 km/h (0 Bft)
12.10.2022 08:42 -1,2 C -2,2 C 93 % 1026,7 hPa 0,0 l/m 0,0 km/h (0 Bft) N-NO 12 0 min 0,0 UV-I 23 W/m -2,2 C -1,2 C 0,0 km/h (0 Bft)
12.10.2022 08:45 -1,4 C -2,2 C 93 % 1026,8 hPa 0,0 l/m 0,0 km/h (0 Bft) N-NO 12 0 min 0,0 UV-I 26 W/m -2,4 C -1,4 C 0,0 km/h (0 Bft)
12.10.2022 08:48 -1,5 C -1,7 C 92 % 1026,8 hPa 0,0 l/m 0,0 km/h (0 Bft) N-NO 12 0 min 0,0 UV-I 27 W/m -2,6 C -1,5 C 0,0 km/h (0 Bft)
12.10.2022 08:51 -1,4 C -1,7 C 93 % 1026,9 hPa 0,0 l/m 0,0 km/h (0 Bft) N-NO 12 0 min 0,0 UV-I 37 W/m -2,4 C -1,4 C 0,0 km/h (0 Bft)
12.10.2022 08:54 -1,3 C -1,7 C 93 % 1026,8 hPa 0,0 l/m 0,0 km/h (0 Bft) N-NO 12 0 min 0,0 UV-I 47 W/m -2,3 C -1,3 C 0,0 km/h (0 Bft)
12.10.2022 08:57 -1,2 C -1,1 C 93 % 1026,8 hPa 0,0 l/m 0,0 km/h (0 Bft) N-NO 12 0 min 0,0 UV-I 53 W/m -2,2 C -1,2 C 0,0 km/h (0 Bft)
12.10.2022 09:00 -1,1 C -0,6 C 93 % 1026,8 hPa 0,0 l/m 0,0 km/h (0 Bft) N-NO 12 0 min 0,0 UV-I 55 W/m -2,1 C -1,1 C 0,0 km/h (0 Bft)
12.10.2022 09:03 -0,9 C 0,0 C 93 % 1026,8 hPa 0,0 l/m 0,0 km/h (0 Bft) N-NO 12 0 min 0,0 UV-I 64 W/m -1,9 C -0,9 C 0,0 km/h (0 Bft)
12.10.2022 09:07 -0,7 C 0,0 C 93 % 1026,8 hPa 0,0 l/m 0,0 km/h (0 Bft) N-NO 12 0 min 0,0 UV-I 73 W/m -1,7 C -0,7 C 0,0 km/h (0 Bft)
12.10.2022 09:09 -0,6 C 0,0 C 93 % 1026,8 hPa 0,0 l/m 0,0 km/h (0 Bft) N-NO 12 0 min 0,0 UV-I 80 W/m -1,6 C -0,6 C 0,0 km/h (0 Bft)
12.10.2022 09:12 -0,4 C 0,6 C 93 % 1026,8 hPa 0,0 l/m 0,0 km/h (0 Bft) N-NO 12 0 min 0,0 UV-I 83 W/m -1,4 C -0,4 C 0,0 km/h (0 Bft)
12.10.2022 09:15 -0,2 C 1,7 C 93 % 1026,8 hPa 0,0 l/m 0,0 km/h (0 Bft) N-NO 12 0 min 0,0 UV-I 90 W/m -1,2 C -0,2 C 0,0 km/h (0 Bft)
12.10.2022 09:18 -0,1 C 2,2 C 93 % 1026,8 hPa 0,0 l/m 0,0 km/h (0 Bft) N-NO 12 0 min 0,0 UV-I 100 W/m -1,1 C -0,1 C 0,0 km/h (0 Bft)
12.10.2022 09:21 -0,1 C 1,7 C 93 % 1026,9 hPa 0,2 l/m 0,0 km/h (0 Bft) N-NO 12 0 min 0,0 UV-I 108 W/m -1,1 C -0,1 C 0,0 km/h (0 Bft)
12.10.2022 09:24 0,1 C 2,2 C 93 % 1026,9 hPa 0,0 l/m 0,0 km/h (0 Bft) N-NO 12 0 min 0,2 UV-I 112 W/m -0,9 C 0,1 C 0,0 km/h (0 Bft)
12.10.2022 09:27 0,3 C 2,8 C 93 % 1026,8 hPa 0,0 l/m 0,0 km/h (0 Bft) N-NO 12 0 min 0,5 UV-I 113 W/m -0,7 C 0,3 C 0,0 km/h (0 Bft)
12.10.2022 09:30 0,4 C 3,3 C 93 % 1026,9 hPa 0,0 l/m 0,0 km/h (0 Bft) N-NO 12 0 min 0,5 UV-I 111 W/m -0,6 C 0,4 C 0,0 km/h (0 Bft)
12.10.2022 09:33 0,5 C 3,3 C 93 % 1026,8 hPa 0,0 l/m 1,1 km/h (1 Bft) N-NO 12 0 min 0,5 UV-I 111 W/m -0,5 C 0,5 C 3,2 km/h (1 Bft)
12.10.2022 09:36 0,7 C 3,9 C 93 % 1026,9 hPa 0,0 l/m 0,0 km/h (0 Bft) N-NO 12 0 min 0,6 UV-I 131 W/m -0,3 C 0,7 C 1,6 km/h (1 Bft)
12.10.2022 09:39 1,2 C 4,4 C 93 % 1026,9 hPa 0,0 l/m 0,0 km/h (0 Bft) N-NO 12 0 min 0,6 UV-I 131 W/m 0,2 C 1,2 C 0,0 km/h (0 Bft)
12.10.2022 09:42 1,3 C 2,8 C 93 % 1027,0 hPa 0,0 l/m 0,0 km/h (0 Bft) N-NO 12 0 min 0,6 UV-I 129 W/m 0,3 C 1,3 C 1,6 km/h (1 Bft)
12.10.2022 09:45 1,3 C 2,8 C 93 % 1027,0 hPa 0,0 l/m 0,0 km/h (0 Bft) N-NO 12 0 min 0,6 UV-I 122 W/m 0,3 C 1,3 C 0,0 km/h (0 Bft)
12.10.2022 09:48 1,4 C 2,8 C 93 % 1026,9 hPa 0,0 l/m 0,0 km/h (0 Bft) N-NO 12 0 min 0,6 UV-I 105 W/m 0,4 C 1,4 C 0,0 km/h (0 Bft)
12.10.2022 09:51 1,6 C 2,8 C 93 % 1026,9 hPa 0,0 l/m 0,0 km/h (0 Bft) N-NO 12 0 min 0,6 UV-I 100 W/m 0,6 C 1,6 C 0,0 km/h (0 Bft)
12.10.2022 09:54 1,9 C 3,3 C 94 % 1026,9 hPa 0,0 l/m 0,0 km/h (0 Bft) N-NO 12 0 min 0,6 UV-I 106 W/m 1,0 C 1,9 C 1,6 km/h (1 Bft)
12.10.2022 09:57 2,2 C 3,3 C 93 % 1027,0 hPa 0,0 l/m 0,0 km/h (0 Bft) N-NO 12 0 min 0,5 UV-I 113 W/m 1,2 C 2,2 C 0,0 km/h (0 Bft)
12.10.2022 10:00 2,5 C 3,9 C 94 % 1027,0 hPa 0,0 l/m 0,0 km/h (0 Bft) N-NO 12 0 min 0,6 UV-I 140 W/m 1,6 C 2,5 C 0,0 km/h (0 Bft)
12.10.2022 10:03 2,9 C 4,4 C 94 % 1027,0 hPa 0,0 l/m 0,0 km/h (0 Bft) N-NO 12 0 min 0,7 UV-I 149 W/m 2,0 C 2,9 C 0,0 km/h (0 Bft)
12.10.2022 10:06 3,3 C 5,0 C 94 % 1027,1 hPa 0,0 l/m 0,0 km/h (0 Bft) N-NO 12 0 min 0,7 UV-I 163 W/m 2,4 C 3,3 C 0,0 km/h (0 Bft)
12.10.2022 10:09 3,5 C 6,1 C 94 % 1027,1 hPa 0,0 l/m 0,1 km/h (0 Bft) N-NO 12 0 min 0,6 UV-I 127 W/m 2,6 C 3,5 C 1,6 km/h (1 Bft)
12.10.2022 10:12 3,5 C 6,1 C 93 % 1027,1 hPa 0,0 l/m 0,0 km/h (0 Bft) N-NO 12 0 min 0,6 UV-I 113 W/m 2,5 C 3,5 C 1,6 km/h (1 Bft)
12.10.2022 10:15 3,7 C 6,7 C 93 % 1027,1 hPa 0,0 l/m 0,1 km/h (0 Bft) N-NO 12 0 min 0,5 UV-I 116 W/m 2,7 C 3,7 C 1,6 km/h (1 Bft)
12.10.2022 10:18 3,8 C 6,7 C 94 % 1027,1 hPa 0,0 l/m 0,1 km/h (0 Bft) N-NO 12 0 min 0,6 UV-I 117 W/m 2,9 C 3,8 C 1,6 km/h (1 Bft)
12.10.2022 10:21 4,0 C 6,7 C 93 % 1027,0 hPa 0,0 l/m 0,6 km/h (0 Bft) N-NO 12 0 min 0,6 UV-I 98 W/m 3,0 C 4,0 C 1,6 km/h (1 Bft)
12.10.2022 10:24 4,1 C 6,7 C 93 % 1027,1 hPa 0,0 l/m 0,8 km/h (0 Bft) N-NO 12 0 min 0,6 UV-I 93 W/m 3,1 C 4,1 C 1,6 km/h (1 Bft)
12.10.2022 10:27 4,2 C 7,2 C 93 % 1027,1 hPa 0,0 l/m 0,0 km/h (0 Bft) N-NO 12 0 min 0,6 UV-I 104 W/m 3,2 C 4,2 C 1,6 km/h (1 Bft)
12.10.2022 10:30 4,3 C 6,7 C 93 % 1027,1 hPa 0,0 l/m 0,0 km/h (0 Bft) N-NO 12 0 min 0,7 UV-I 129 W/m 3,3 C 4,3 C 1,6 km/h (1 Bft)
12.10.2022 10:33 4,3 C 6,1 C 93 % 1027,0 hPa 0,0 l/m 1,3 km/h (1 Bft) N-NO 12 0 min 0,7 UV-I 139 W/m 3,3 C 4,3 C 3,2 km/h (1 Bft)
12.10.2022 10:36 4,3 C 6,7 C 93 % 1027,0 hPa 0,0 l/m 1,3 km/h (1 Bft) N-NO 12 0 min 0,7 UV-I 117 W/m 3,3 C 4,3 C 3,2 km/h (1 Bft)
12.10.2022 10:39 4,4 C 6,7 C 93 % 1027,0 hPa 0,0 l/m 0,0 km/h (0 Bft) N-NO 12 0 min 0,6 UV-I 104 W/m 3,4 C 4,4 C 1,6 km/h (1 Bft)
12.10.2022 10:42 4,4 C 7,2 C 93 % 1027,0 hPa 0,0 l/m 0,4 km/h (0 Bft) N-NO 12 0 min 0,7 UV-I 124 W/m 3,4 C 4,4 C 1,6 km/h (1 Bft)
12.10.2022 10:45 4,7 C 7,8 C 93 % 1026,8 hPa 0,0 l/m 1,3 km/h (1 Bft) N-NO 12 0 min 0,7 UV-I 135 W/m 3,7 C 4,7 C 3,2 km/h (1 Bft)
12.10.2022 10:48 5,0 C 8,3 C 93 % 1026,8 hPa 0,0 l/m 0,1 km/h (0 Bft) N-NO 12 0 min 0,7 UV-I 130 W/m 4,0 C 5,0 C 1,6 km/h (1 Bft)
12.10.2022 10:51 5,2 C 8,3 C 93 % 1026,9 hPa 0,0 l/m 0,8 km/h (0 Bft) N-NO 12 0 min 0,7 UV-I 123 W/m 4,2 C 5,2 C 3,2 km/h (1 Bft)
12.10.2022 10:54 5,3 C 8,3 C 93 % 1026,8 hPa 0,0 l/m 1,0 km/h (0 Bft) N-NO 12 0 min 0,5 UV-I 99 W/m 4,3 C 5,3 C 3,2 km/h (1 Bft)
12.10.2022 10:57 5,7 C 7,8 C 93 % 1026,8 hPa 0,0 l/m 1,3 km/h (1 Bft) N-NO 12 0 min 0,5 UV-I 79 W/m 4,7 C 5,7 C 3,2 km/h (1 Bft)
12.10.2022 11:00 5,8 C 7,2 C 93 % 1027,0 hPa 0,0 l/m 2,0 km/h (1 Bft) N-NO 13 0 min 0,5 UV-I 77 W/m 4,8 C 5,8 C 3,2 km/h (1 Bft)
12.10.2022 11:03 5,6 C 6,7 C 92 % 1027,0 hPa 0,0 l/m 0,0 km/h (0 Bft) N-NO 13 0 min 0,2 UV-I 72 W/m 4,4 C 5,6 C 1,6 km/h (1 Bft)
12.10.2022 11:06 5,8 C 7,2 C 93 % 1026,9 hPa 0,0 l/m 2,0 km/h (1 Bft) N-NO 13 0 min 0,3 UV-I 75 W/m 4,8 C 5,8 C 4,8 km/h (1 Bft)
12.10.2022 11:09 5,8 C 7,2 C 92 % 1027,0 hPa 0,0 l/m 1,5 km/h (1 Bft) N-NO 13 0 min 0,2 UV-I 76 W/m 4,6 C 5,8 C 3,2 km/h (1 Bft)
12.10.2022 11:12 5,8 C 7,8 C 93 % 1026,9 hPa 0,0 l/m 0,4 km/h (0 Bft) N-NO 13 0 min 0,5 UV-I 94 W/m 4,8 C 5,8 C 1,6 km/h (1 Bft)
12.10.2022 11:15 6,1 C 7,8 C 93 % 1027,1 hPa 0,0 l/m 0,3 km/h (0 Bft) N-NO 13 0 min 0,7 UV-I 116 W/m 5,1 C 6,1 C 1,6 km/h (1 Bft)
12.10.2022 11:18 6,2 C 7,8 C 92 % 1027,0 hPa 0,0 l/m 0,2 km/h (0 Bft) N-NO 13 0 min 0,8 UV-I 130 W/m 5,0 C 6,2 C 1,6 km/h (1 Bft)
12.10.2022 11:21 6,3 C 8,3 C 92 % 1026,9 hPa 0,0 l/m 0,0 km/h (0 Bft) N-NO 13 0 min 0,8 UV-I 144 W/m 5,1 C 6,3 C 0,0 km/h (0 Bft)
12.10.2022 11:24 6,7 C 8,3 C 93 % 1026,9 hPa 0,0 l/m 0,1 km/h (0 Bft) N-NO 13 0 min 1,0 UV-I 178 W/m 5,6 C 6,7 C 1,6 km/h (1 Bft)
12.10.2022 11:27 7,1 C 9,4 C 92 % 1026,9 hPa 0,0 l/m 0,2 km/h (0 Bft) N-NO 13 0 min 1,2 UV-I 231 W/m 5,9 C 7,1 C 1,6 km/h (1 Bft)
12.10.2022 11:30 7,2 C 10,6 C 92 % 1026,9 hPa 0,0 l/m 1,3 km/h (1 Bft) N-NO 13 0 min 1,2 UV-I 208 W/m 6,0 C 7,2 C 3,2 km/h (1 Bft)
12.10.2022 11:33 7,2 C 10,0 C 92 % 1026,9 hPa 0,0 l/m 0,1 km/h (0 Bft) N-NO 13 0 min 1,2 UV-I 195 W/m 6,0 C 7,2 C 1,6 km/h (1 Bft)
12.10.2022 11:36 7,5 C 10,6 C 92 % 1027,0 hPa 0,0 l/m 0,0 km/h (0 Bft) N-NO 13 0 min 1,3 UV-I 192 W/m 6,3 C 7,5 C 0,0 km/h (0 Bft)
12.10.2022 11:39 8,1 C 11,1 C 92 % 1027,0 hPa 0,0 l/m 1,7 km/h (1 Bft) W-NW 296 0 min 1,4 UV-I 212 W/m 6,9 C 8,1 C 4,8 km/h (1 Bft)
12.10.2022 11:42 8,8 C 11,1 C 92 % 1027,0 hPa 0,0 l/m 3,0 km/h (1 Bft) W-SW 242 0 min 1,5 UV-I 253 W/m 7,6 C 8,8 C 6,4 km/h (2 Bft)
12.10.2022 11:45 9,4 C 11,7 C 92 % 1026,9 hPa 0,0 l/m 6,1 km/h (2 Bft) S-SW 213 0 min 1,4 UV-I 240 W/m 8,2 C 9,4 C 14,5 km/h (3 Bft)
12.10.2022 11:48 9,8 C 11,7 C 91 % 1027,0 hPa 0,0 l/m 7,2 km/h (2 Bft) SW 232 0 min 1,4 UV-I 246 W/m 8,4 C 9,2 C 12,9 km/h (3 Bft)
12.10.2022 11:51 9,9 C 11,7 C 90 % 1026,9 hPa 0,0 l/m 5,5 km/h (1 Bft) W-SW 242 0 min 1,4 UV-I 242 W/m 8,3 C 9,9 C 12,9 km/h (3 Bft)
12.10.2022 11:54 10,1 C 11,7 C 90 % 1026,9 hPa 0,0 l/m 6,2 km/h (2 Bft) SW 221 0 min 1,5 UV-I 264 W/m 8,5 C 10,1 C 11,3 km/h (2 Bft)
12.10.2022 11:57 10,2 C 12,2 C 89 % 1026,9 hPa 0,0 l/m 6,6 km/h (2 Bft) S-SW 203 0 min 1,5 UV-I 289 W/m 8,5 C 10,1 C 11,3 km/h (2 Bft)
12.10.2022 12:00 10,4 C 12,8 C 88 % 1026,8 hPa 0,0 l/m 5,5 km/h (1 Bft) S-SW 192 0 min 1,6 UV-I 289 W/m 8,5 C 10,4 C 9,7 km/h (2 Bft)
12.10.2022 12:03 10,4 C 12,2 C 88 % 1026,9 hPa 0,0 l/m 7,5 km/h (2 Bft) SW 217 0 min 1,5 UV-I 253 W/m 8,5 C 9,6 C 11,3 km/h (2 Bft)
12.10.2022 12:06 10,2 C 11,7 C 87 % 1026,8 hPa 0,0 l/m 6,7 km/h (2 Bft) SW 216 0 min 1,4 UV-I 232 W/m 8,1 C 10,0 C 12,9 km/h (3 Bft)
12.10.2022 12:09 10,3 C 12,2 C 87 % 1026,7 hPa 0,0 l/m 7,6 km/h (2 Bft) S 189 0 min 1,6 UV-I 259 W/m 8,2 C 9,4 C 12,9 km/h (3 Bft)
12.10.2022 12:12 10,5 C 13,3 C 87 % 1026,5 hPa 0,0 l/m 7,2 km/h (2 Bft) S 186 0 min 1,9 UV-I 316 W/m 8,4 C 9,9 C 11,3 km/h (2 Bft)
12.10.2022 12:15 10,6 C 12,8 C 86 % 1026,6 hPa 0,0 l/m 8,1 km/h (2 Bft) SW 214 0 min 1,7 UV-I 252 W/m 8,4 C 9,4 C 11,3 km/h (2 Bft)
12.10.2022 12:18 10,6 C 13,3 C 86 % 1026,6 hPa 0,0 l/m 7,3 km/h (2 Bft) SW 223 0 min 1,6 UV-I 261 W/m 8,4 C 10,0 C 9,7 km/h (2 Bft)
12.10.2022 12:21 10,8 C 15,6 C 85 % 1026,6 hPa 0,0 l/m 9,6 km/h (2 Bft) SW 216 3 min 2,4 UV-I 609 W/m 8,4 C 8,7 C 14,5 km/h (3 Bft)
12.10.2022 12:24 11,1 C 15,0 C 85 % 1026,7 hPa 0,0 l/m 9,7 km/h (2 Bft) SW 217 3 min 1,9 UV-I 424 W/m 8,7 C 9,0 C 14,5 km/h (3 Bft)
12.10.2022 12:27 10,9 C 13,3 C 84 % 1026,8 hPa 0,0 l/m 7,4 km/h (2 Bft) SW 219 0 min 1,7 UV-I 233 W/m 8,3 C 10,2 C 12,9 km/h (3 Bft)
12.10.2022 12:30 11,0 C 12,8 C 84 % 1026,8 hPa 0,0 l/m 8,4 km/h (2 Bft) W-SW 242 0 min 1,7 UV-I 248 W/m 8,4 C 9,6 C 12,9 km/h (3 Bft)
12.10.2022 12:33 11,1 C 12,8 C 84 % 1026,7 hPa 0,0 l/m 9,3 km/h (2 Bft) SW 220 0 min 1,8 UV-I 277 W/m 8,5 C 9,2 C 14,5 km/h (3 Bft)
12.10.2022 12:36 11,2 C 15,0 C 85 % 1026,6 hPa 0,0 l/m 7,8 km/h (2 Bft) W-SW 238 0 min 2,3 UV-I 357 W/m 8,8 C 10,2 C 14,5 km/h (3 Bft)
12.10.2022 12:39 11,5 C 16,7 C 84 % 1026,8 hPa 0,0 l/m 10,8 km/h (2 Bft) S-SW 207 3 min 2,5 UV-I 585 W/m 8,9 C 8,8 C 16,1 km/h (3 Bft)
12.10.2022 12:42 11,7 C 16,7 C 82 % 1026,9 hPa 0,0 l/m 8,9 km/h (2 Bft) S-SW 213 3 min 2,4 UV-I 533 W/m 8,7 C 10,1 C 12,9 km/h (3 Bft)
12.10.2022 12:45 11,5 C 15,0 C 82 % 1026,7 hPa 0,0 l/m 8,0 km/h (2 Bft) S 188 0 min 2,0 UV-I 313 W/m 8,5 C 10,4 C 12,9 km/h (3 Bft)
12.10.2022 12:48 11,7 C 15,0 C 82 % 1026,7 hPa 0,0 l/m 5,7 km/h (1 Bft) W-SW 245 0 min 2,1 UV-I 338 W/m 8,7 C 11,7 C 12,9 km/h (3 Bft)
12.10.2022 12:51 11,7 C 15,0 C 82 % 1026,7 hPa 0,0 l/m 9,3 km/h (2 Bft) S-SW 213 0 min 2,0 UV-I 368 W/m 8,7 C 9,9 C 16,1 km/h (3 Bft)
12.10.2022 12:54 11,7 C 14,4 C 81 % 1026,6 hPa 0,0 l/m 8,7 km/h (2 Bft) SW 225 0 min 1,7 UV-I 263 W/m 8,5 C 10,2 C 14,5 km/h (3 Bft)
12.10.2022 12:57 11,6 C 14,4 C 81 % 1026,7 hPa 0,0 l/m 8,7 km/h (2 Bft) S-SW 202 0 min 1,8 UV-I 272 W/m 8,5 C 10,1 C 16,1 km/h (3 Bft)
12.10.2022 13:00 11,6 C 14,4 C 81 % 1026,7 hPa 0,0 l/m 6,5 km/h (2 Bft) SW 235 0 min 1,9 UV-I 341 W/m 8,5 C 11,6 C 12,9 km/h (3 Bft)
12.10.2022 13:03 11,7 C 15,0 C 81 % 1026,7 hPa 0,0 l/m 9,5 km/h (2 Bft) SW 229 0 min 1,9 UV-I 334 W/m 8,5 C 9,7 C 16,1 km/h (3 Bft)
12.10.2022 13:06 11,6 C 13,9 C 79 % 1026,7 hPa 0,0 l/m 9,9 km/h (2 Bft) SW 217 0 min 1,7 UV-I 251 W/m 8,1 C 9,4 C 14,5 km/h (3 Bft)
12.10.2022 13:09 11,4 C 13,3 C 80 % 1026,7 hPa 0,0 l/m 8,8 km/h (2 Bft) SW 214 0 min 1,7 UV-I 245 W/m 8,1 C 9,8 C 14,5 km/h (3 Bft)
12.10.2022 13:12 11,5 C 13,9 C 81 % 1026,7 hPa 0,0 l/m 8,0 km/h (2 Bft) S-SW 196 0 min 1,7 UV-I 248 W/m 8,4 C 10,4 C 12,9 km/h (3 Bft)
12.10.2022 13:15 11,6 C 14,4 C 81 % 1026,6 hPa 0,0 l/m 7,2 km/h (2 Bft) S-SW 202 0 min 1,8 UV-I 297 W/m 8,5 C 11,1 C 12,9 km/h (3 Bft)
12.10.2022 13:18 11,6 C 14,4 C 80 % 1026,5 hPa 0,0 l/m 8,5 km/h (2 Bft) SW 228 0 min 1,9 UV-I 299 W/m 8,3 C 10,2 C 12,9 km/h (3 Bft)
12.10.2022 13:21 11,6 C 14,4 C 79 % 1026,6 hPa 0,0 l/m 8,7 km/h (2 Bft) W-SW 238 0 min 1,8 UV-I 281 W/m 8,1 C 10,1 C 12,9 km/h (3 Bft)
12.10.2022 13:24 11,7 C 14,4 C 79 % 1026,5 hPa 0,0 l/m 8,9 km/h (2 Bft) S-SW 202 0 min 1,8 UV-I 288 W/m 8,2 C 10,1 C 14,5 km/h (3 Bft)
12.10.2022 13:27 11,8 C 15,0 C 79 % 1026,4 hPa 0,0 l/m 7,5 km/h (2 Bft) S-SW 196 0 min 1,8 UV-I 287 W/m 8,3 C 11,1 C 14,5 km/h (3 Bft)
12.10.2022 13:30 11,8 C 15,0 C 80 % 1026,5 hPa 0,0 l/m 7,7 km/h (2 Bft) S-SW 198 0 min 1,9 UV-I 299 W/m 8,5 C 10,9 C 12,9 km/h (3 Bft)
12.10.2022 13:33 11,8 C 15,6 C 79 % 1026,3 hPa 0,0 l/m 6,5 km/h (2 Bft) S 175 0 min 1,9 UV-I 298 W/m 8,3 C 11,8 C 9,7 km/h (2 Bft)
12.10.2022 13:36 11,8 C 16,1 C 79 % 1026,3 hPa 0,0 l/m 7,2 km/h (2 Bft) S-SW 200 0 min 2,0 UV-I 348 W/m 8,3 C 11,3 C 16,1 km/h (3 Bft)
12.10.2022 13:39 11,8 C 16,7 C 79 % 1026,2 hPa 0,0 l/m 8,5 km/h (2 Bft) SW 229 0 min 2,2 UV-I 369 W/m 8,3 C 10,4 C 14,5 km/h (3 Bft)
12.10.2022 13:42 12,2 C 17,8 C 79 % 1026,3 hPa 0,0 l/m 9,4 km/h (2 Bft) SW 221 3 min 2,3 UV-I 447 W/m 8,7 C 10,3 C 16,1 km/h (3 Bft)
12.10.2022 13:45 12,2 C 17,8 C 80 % 1026,3 hPa 0,0 l/m 9,5 km/h (2 Bft) SW 216 3 min 2,2 UV-I 424 W/m 8,9 C 10,3 C 12,9 km/h (3 Bft)
12.10.2022 13:48 12,2 C 17,8 C 79 % 1026,2 hPa 0,0 l/m 8,7 km/h (2 Bft) S-SW 195 3 min 2,2 UV-I 406 W/m 8,7 C 10,7 C 14,5 km/h (3 Bft)
12.10.2022 13:51 12,3 C 17,8 C 79 % 1026,2 hPa 0,0 l/m 8,6 km/h (2 Bft) W-SW 237 3 min 2,3 UV-I 417 W/m 8,8 C 10,9 C 16,1 km/h (3 Bft)
12.10.2022 13:54 12,2 C 17,8 C 78 % 1026,1 hPa 0,0 l/m 8,0 km/h (2 Bft) SW 235 3 min 2,3 UV-I 412 W/m 8,5 C 11,2 C 14,5 km/h (3 Bft)
12.10.2022 13:57 12,3 C 18,3 C 79 % 1026,1 hPa 0,0 l/m 6,3 km/h (2 Bft) W-SW 242 3 min 2,3 UV-I 413 W/m 8,8 C 12,3 C 11,3 km/h (2 Bft)
12.10.2022 14:00 12,4 C 18,3 C 78 % 1026,2 hPa 0,0 l/m 8,7 km/h (2 Bft) SW 227 3 min 2,3 UV-I 424 W/m 8,7 C 11,0 C 16,1 km/h (3 Bft)
12.10.2022 14:03 12,6 C 19,4 C 78 % 1026,1 hPa 0,0 l/m 9,6 km/h (2 Bft) S 178 3 min 2,3 UV-I 457 W/m 8,9 C 10,7 C 19,3 km/h (3 Bft)
12.10.2022 14:06 12,6 C 18,3 C 78 % 1026,2 hPa 0,0 l/m 8,2 km/h (2 Bft) W-SW 242 0 min 2,1 UV-I 378 W/m 8,9 C 11,5 C 17,7 km/h (3 Bft)
12.10.2022 14:09 12,4 C 17,8 C 78 % 1026,1 hPa 0,0 l/m 8,9 km/h (2 Bft) W 273 0 min 2,1 UV-I 369 W/m 8,7 C 10,8 C 16,1 km/h (3 Bft)
12.10.2022 14:12 12,6 C 18,3 C 79 % 1026,2 hPa 0,0 l/m 9,1 km/h (2 Bft) SW 229 3 min 2,3 UV-I 453 W/m 9,1 C 10,9 C 14,5 km/h (3 Bft)
12.10.2022 14:15 12,7 C 18,9 C 78 % 1026,1 hPa 0,0 l/m 8,8 km/h (2 Bft) SW 228 3 min 2,2 UV-I 440 W/m 9,0 C 11,2 C 16,1 km/h (3 Bft)
12.10.2022 14:18 12,4 C 17,8 C 78 % 1026,1 hPa 0,0 l/m 9,2 km/h (2 Bft) W-SW 247 0 min 2,2 UV-I 359 W/m 8,7 C 10,7 C 14,5 km/h (3 Bft)
12.10.2022 14:21 12,6 C 19,4 C 78 % 1026,0 hPa 0,0 l/m 7,2 km/h (2 Bft) S-SW 211 3 min 2,4 UV-I 510 W/m 8,9 C 12,1 C 12,9 km/h (3 Bft)
12.10.2022 14:24 12,7 C 20,6 C 78 % 1026,0 hPa 0,0 l/m 9,4 km/h (2 Bft) SW 229 3 min 2,6 UV-I 541 W/m 9,0 C 10,9 C 16,1 km/h (3 Bft)
12.10.2022 14:27 12,9 C 21,1 C 77 % 1026,1 hPa 0,0 l/m 6,8 km/h (2 Bft) S-SO 161 3 min 2,5 UV-I 549 W/m 9,0 C 12,7 C 12,9 km/h (3 Bft)
12.10.2022 14:30 13,2 C 21,1 C 77 % 1026,1 hPa 0,0 l/m 11,4 km/h (2 Bft) SW 236 3 min 2,6 UV-I 565 W/m 9,3 C 10,5 C 17,7 km/h (3 Bft)
12.10.2022 14:33 13,4 C 21,7 C 77 % 1026,0 hPa 0,0 l/m 8,7 km/h (2 Bft) W-SW 241 3 min 2,6 UV-I 571 W/m 9,5 C 12,0 C 14,5 km/h (3 Bft)
12.10.2022 14:36 13,6 C 21,7 C 76 % 1025,9 hPa 0,0 l/m 7,0 km/h (2 Bft) S-SW 196 3 min 2,5 UV-I 556 W/m 9,4 C 13,2 C 14,5 km/h (3 Bft)
12.10.2022 14:39 13,6 C 21,7 C 75 % 1025,9 hPa 0,0 l/m 9,0 km/h (2 Bft) S 188 3 min 2,5 UV-I 543 W/m 9,3 C 12,1 C 14,5 km/h (3 Bft)
12.10.2022 14:42 13,5 C 21,1 C 75 % 1026,0 hPa 0,0 l/m 11,5 km/h (2 Bft) S-SW 192 3 min 2,5 UV-I 574 W/m 9,2 C 10,8 C 17,7 km/h (3 Bft)
12.10.2022 14:45 13,4 C 20,6 C 75 % 1025,9 hPa 0,0 l/m 11,9 km/h (2 Bft) SW 223 3 min 2,3 UV-I 506 W/m 9,1 C 10,5 C 17,7 km/h (3 Bft)
12.10.2022 14:48 13,3 C 18,9 C 75 % 1025,9 hPa 0,0 l/m 15,4 km/h (3 Bft) S-SW 200 3 min 2,2 UV-I 457 W/m 9,0 C 9,0 C 20,9 km/h (4 Bft)
12.10.2022 14:51 13,1 C 18,9 C 75 % 1025,8 hPa 0,0 l/m 8,3 km/h (2 Bft) S-SW 200 3 min 2,1 UV-I 404 W/m 8,8 C 11,9 C 11,3 km/h (2 Bft)
12.10.2022 14:54 13,0 C 17,2 C 75 % 1025,8 hPa 0,0 l/m 12,8 km/h (3 Bft) S-SW 193 0 min 1,9 UV-I 306 W/m 8,7 C 9,6 C 19,3 km/h (3 Bft)
12.10.2022 14:57 12,9 C 17,2 C 76 % 1025,7 hPa 0,0 l/m 10,1 km/h (2 Bft) S-SW 209 0 min 1,8 UV-I 300 W/m 8,8 C 10,7 C 16,1 km/h (3 Bft)
12.10.2022 15:00 12,8 C 16,1 C 76 % 1025,8 hPa 0,0 l/m 9,8 km/h (2 Bft) S 187 0 min 1,6 UV-I 254 W/m 8,7 C 10,8 C 14,5 km/h (3 Bft)
12.10.2022 15:03 12,7 C 17,2 C 77 % 1025,8 hPa 0,0 l/m 10,2 km/h (2 Bft) SW 217 0 min 1,8 UV-I 318 W/m 8,8 C 10,5 C 16,1 km/h (3 Bft)
12.10.2022 15:06 12,9 C 19,4 C 77 % 1025,7 hPa 0,0 l/m 8,8 km/h (2 Bft) S-SW 209 0 min 2,1 UV-I 378 W/m 9,0 C 11,4 C 17,7 km/h (3 Bft)
12.10.2022 15:09 13,3 C 21,1 C 76 % 1025,7 hPa 0,0 l/m 8,3 km/h (2 Bft) SW 217 3 min 2,4 UV-I 622 W/m 9,2 C 12,1 C 16,1 km/h (3 Bft)
12.10.2022 15:12 13,3 C 20,0 C 75 % 1025,6 hPa 0,0 l/m 8,3 km/h (2 Bft) SW 226 3 min 1,8 UV-I 431 W/m 9,0 C 12,1 C 12,9 km/h (3 Bft)
12.10.2022 15:15 13,2 C 17,8 C 75 % 1025,6 hPa 0,0 l/m 8,1 km/h (2 Bft) W-SW 244 0 min 1,6 UV-I 305 W/m 8,9 C 12,2 C 12,9 km/h (3 Bft)
12.10.2022 15:18 13,1 C 16,7 C 76 % 1025,7 hPa 0,0 l/m 9,6 km/h (2 Bft) SW 217 0 min 1,5 UV-I 255 W/m 9,0 C 11,2 C 14,5 km/h (3 Bft)
12.10.2022 15:21 13,1 C 17,8 C 75 % 1025,7 hPa 0,0 l/m 10,7 km/h (2 Bft) S-SW 209 0 min 1,8 UV-I 342 W/m 8,8 C 10,7 C 16,1 km/h (3 Bft)
12.10.2022 15:24 12,9 C 17,2 C 75 % 1025,7 hPa 0,0 l/m 11,9 km/h (2 Bft) S 182 0 min 1,6 UV-I 297 W/m 8,6 C 9,9 C 16,1 km/h (3 Bft)
12.10.2022 15:27 13,0 C 17,8 C 74 % 1025,7 hPa 0,0 l/m 10,4 km/h (2 Bft) SW 221 0 min 1,7 UV-I 367 W/m 8,5 C 10,7 C 16,1 km/h (3 Bft)
12.10.2022 15:30 13,2 C 18,9 C 75 % 1025,6 hPa 0,0 l/m 10,8 km/h (2 Bft) S 175 0 min 1,8 UV-I 387 W/m 8,9 C 10,7 C 16,1 km/h (3 Bft)
12.10.2022 15:33 13,3 C 20,6 C 75 % 1025,5 hPa 0,0 l/m 8,7 km/h (2 Bft) S-SW 205 3 min 1,8 UV-I 405 W/m 9,0 C 11,9 C 12,9 km/h (3 Bft)
12.10.2022 15:36 13,3 C 19,4 C 75 % 1025,6 hPa 0,0 l/m 8,9 km/h (2 Bft) W 259 0 min 1,6 UV-I 309 W/m 9,0 C 11,8 C 12,9 km/h (3 Bft)
12.10.2022 15:39 13,3 C 18,3 C 75 % 1025,5 hPa 0,0 l/m 8,8 km/h (2 Bft) SW 217 0 min 1,5 UV-I 303 W/m 9,0 C 11,9 C 14,5 km/h (3 Bft)
12.10.2022 15:42 13,4 C 20,6 C 75 % 1025,4 hPa 0,0 l/m 8,2 km/h (2 Bft) S-SW 212 3 min 1,7 UV-I 417 W/m 9,1 C 12,3 C 16,1 km/h (3 Bft)
12.10.2022 15:45 13,3 C 20,6 C 74 % 1025,4 hPa 0,0 l/m 8,4 km/h (2 Bft) S-SW 201 0 min 1,7 UV-I 392 W/m 8,8 C 12,1 C 14,5 km/h (3 Bft)
12.10.2022 15:48 13,4 C 21,7 C 74 % 1025,2 hPa 0,0 l/m 7,9 km/h (2 Bft) S-SW 211 3 min 1,8 UV-I 451 W/m 8,9 C 12,5 C 16,1 km/h (3 Bft)
12.10.2022 15:51 13,3 C 21,7 C 74 % 1025,1 hPa 0,0 l/m 7,6 km/h (2 Bft) S 182 3 min 1,7 UV-I 412 W/m 8,8 C 12,6 C 12,9 km/h (3 Bft)
12.10.2022 15:54 13,6 C 22,2 C 74 % 1025,2 hPa 0,0 l/m 7,3 km/h (2 Bft) S 178 3 min 1,7 UV-I 441 W/m 9,1 C 13,0 C 12,9 km/h (3 Bft)
12.10.2022 15:57 13,7 C 22,2 C 73 % 1025,1 hPa 0,0 l/m 6,9 km/h (2 Bft) S-SW 196 3 min 1,7 UV-I 439 W/m 8,9 C 13,4 C 11,3 km/h (2 Bft)
12.10.2022 16:00 13,7 C 21,1 C 73 % 1025,2 hPa 0,0 l/m 10,2 km/h (2 Bft) S-SW 194 3 min 1,6 UV-I 398 W/m 8,9 C 11,6 C 14,5 km/h (3 Bft)
12.10.2022 16:03 13,6 C 20,0 C 73 % 1025,2 hPa 0,0 l/m 9,0 km/h (2 Bft) S-SO 153 0 min 1,5 UV-I 355 W/m 8,9 C 12,1 C 11,3 km/h (2 Bft)
12.10.2022 16:06 13,7 C 21,7 C 74 % 1025,2 hPa 0,0 l/m 7,4 km/h (2 Bft) S 187 3 min 1,5 UV-I 417 W/m 9,2 C 13,1 C 11,3 km/h (2 Bft)
12.10.2022 16:09 13,8 C 21,7 C 72 % 1025,2 hPa 0,0 l/m 9,8 km/h (2 Bft) S-SW 197 0 min 1,4 UV-I 387 W/m 8,8 C 11,9 C 14,5 km/h (3 Bft)
12.10.2022 16:12 13,4 C 17,2 C 72 % 1025,2 hPa 0,0 l/m 11,1 km/h (2 Bft) SW 217 0 min 1,0 UV-I 167 W/m 8,5 C 10,8 C 14,5 km/h (3 Bft)
12.10.2022 16:15 13,1 C 15,6 C 73 % 1025,2 hPa 0,0 l/m 8,9 km/h (2 Bft) S-SW 212 0 min 1,0 UV-I 165 W/m 8,4 C 11,6 C 14,5 km/h (3 Bft)
12.10.2022 16:18 12,9 C 15,0 C 74 % 1025,0 hPa 0,0 l/m 8,4 km/h (2 Bft) S 189 0 min 1,0 UV-I 182 W/m 8,4 C 11,7 C 12,9 km/h (3 Bft)
12.10.2022 16:21 12,9 C 15,0 C 74 % 1025,0 hPa 0,0 l/m 8,9 km/h (2 Bft) S-SW 196 0 min 1,0 UV-I 178 W/m 8,4 C 11,4 C 12,9 km/h (3 Bft)
12.10.2022 16:24 12,9 C 15,6 C 74 % 1025,0 hPa 0,0 l/m 7,8 km/h (2 Bft) S-SW 198 0 min 1,0 UV-I 201 W/m 8,4 C 12,0 C 11,3 km/h (2 Bft)
12.10.2022 16:27 12,8 C 15,0 C 74 % 1025,1 hPa 0,0 l/m 8,6 km/h (2 Bft) S-SW 200 0 min 0,9 UV-I 144 W/m 8,3 C 11,4 C 12,9 km/h (3 Bft)
12.10.2022 16:30 12,7 C 13,9 C 75 % 1025,0 hPa 0,0 l/m 6,5 km/h (2 Bft) S-SW 193 0 min 0,8 UV-I 111 W/m 8,4 C 12,7 C 9,7 km/h (2 Bft)
12.10.2022 16:33 12,7 C 13,3 C 75 % 1025,1 hPa 0,0 l/m 6,4 km/h (2 Bft) S 186 0 min 0,7 UV-I 96 W/m 8,4 C 12,7 C 9,7 km/h (2 Bft)
12.10.2022 16:36 12,6 C 13,3 C 75 % 1025,1 hPa 0,0 l/m 5,0 km/h (1 Bft) SW 215 0 min 0,7 UV-I 102 W/m 8,3 C 12,6 C 9,7 km/h (2 Bft)
12.10.2022 16:39 12,6 C 14,4 C 76 % 1024,9 hPa 0,0 l/m 4,4 km/h (1 Bft) S 186 0 min 0,8 UV-I 161 W/m 8,5 C 12,6 C 8,0 km/h (2 Bft)
12.10.2022 16:42 12,8 C 17,8 C 76 % 1025,0 hPa 0,0 l/m 5,1 km/h (1 Bft) SW 214 0 min 0,9 UV-I 273 W/m 8,7 C 12,8 C 9,7 km/h (2 Bft)
12.10.2022 16:45 13,2 C 20,0 C 76 % 1025,0 hPa 0,0 l/m 6,8 km/h (2 Bft) S-SW 202 0 min 1,0 UV-I 333 W/m 9,1 C 13,0 C 9,7 km/h (2 Bft)
12.10.2022 16:48 13,3 C 21,1 C 73 % 1025,0 hPa 0,0 l/m 4,8 km/h (1 Bft) S 188 0 min 1,0 UV-I 321 W/m 8,6 C 13,3 C 11,3 km/h (2 Bft)
12.10.2022 16:51 13,3 C 22,2 C 73 % 1025,0 hPa 0,0 l/m 3,3 km/h (1 Bft) S 169 0 min 0,9 UV-I 297 W/m 8,6 C 13,3 C 8,0 km/h (2 Bft)
12.10.2022 16:54 13,3 C 21,1 C 72 % 1025,0 hPa 0,0 l/m 6,9 km/h (2 Bft) S-SW 202 0 min 0,9 UV-I 262 W/m 8,4 C 13,0 C 9,7 km/h (2 Bft)
12.10.2022 16:57 13,3 C 20,0 C 73 % 1025,0 hPa 0,0 l/m 6,5 km/h (2 Bft) S-SW 192 0 min 0,8 UV-I 241 W/m 8,6 C 13,3 C 9,7 km/h (2 Bft)
12.10.2022 17:00 13,3 C 19,4 C 73 % 1025,0 hPa 0,0 l/m 6,0 km/h (2 Bft) SW 215 0 min 0,8 UV-I 216 W/m 8,6 C 13,3 C 11,3 km/h (2 Bft)
12.10.2022 17:03 13,2 C 17,8 C 73 % 1025,0 hPa 0,0 l/m 5,5 km/h (1 Bft) S 190 0 min 0,6 UV-I 126 W/m 8,5 C 13,2 C 9,7 km/h (2 Bft)
12.10.2022 17:06 13,0 C 16,7 C 73 % 1025,0 hPa 0,0 l/m 4,0 km/h (1 Bft) SW 222 0 min 0,6 UV-I 126 W/m 8,3 C 13,0 C 8,0 km/h (2 Bft)
12.10.2022 17:09 12,8 C 16,1 C 73 % 1025,0 hPa 0,0 l/m 5,7 km/h (1 Bft) SW 214 0 min 0,6 UV-I 128 W/m 8,1 C 12,8 C 9,7 km/h (2 Bft)
12.10.2022 17:12 12,8 C 17,2 C 74 % 1024,9 hPa 0,0 l/m 4,9 km/h (1 Bft) S 184 0 min 0,6 UV-I 174 W/m 8,3 C 12,8 C 11,3 km/h (2 Bft)
12.10.2022 17:15 12,7 C 17,2 C 75 % 1025,1 hPa 0,0 l/m 4,8 km/h (1 Bft) S-SW 192 0 min 0,6 UV-I 141 W/m 8,4 C 12,7 C 8,0 km/h (2 Bft)
12.10.2022 17:18 12,8 C 18,3 C 75 % 1025,0 hPa 0,0 l/m 6,7 km/h (2 Bft) S 188 0 min 0,6 UV-I 211 W/m 8,5 C 12,6 C 11,3 km/h (2 Bft)
12.10.2022 17:21 12,9 C 18,9 C 74 % 1025,1 hPa 0,0 l/m 8,1 km/h (2 Bft) S-SW 192 0 min 0,6 UV-I 225 W/m 8,4 C 11,8 C 11,3 km/h (2 Bft)
12.10.2022 17:24 12,9 C 18,3 C 73 % 1025,1 hPa 0,0 l/m 7,0 km/h (2 Bft) S-SW 200 0 min 0,6 UV-I 168 W/m 8,2 C 12,5 C 11,3 km/h (2 Bft)
12.10.2022 17:27 12,9 C 16,7 C 74 % 1025,1 hPa 0,0 l/m 6,6 km/h (2 Bft) SW 217 0 min 0,5 UV-I 187 W/m 8,4 C 12,8 C 9,7 km/h (2 Bft)
12.10.2022 17:30 12,9 C 15,0 C 74 % 1025,0 hPa 0,0 l/m 7,2 km/h (2 Bft) S-SW 205 0 min 0,5 UV-I 179 W/m 8,4 C 12,4 C 9,7 km/h (2 Bft)
12.10.2022 17:33 13,0 C 13,9 C 74 % 1024,9 hPa 0,0 l/m 6,1 km/h (2 Bft) S-SW 194 0 min 0,5 UV-I 169 W/m 8,5 C 13,0 C 8,0 km/h (2 Bft)
12.10.2022 17:36 12,9 C 13,9 C 75 % 1025,0 hPa 0,0 l/m 6,2 km/h (2 Bft) S 178 0 min 0,3 UV-I 147 W/m 8,6 C 12,9 C 8,0 km/h (2 Bft)
12.10.2022 17:39 12,8 C 13,3 C 75 % 1024,9 hPa 0,0 l/m 7,0 km/h (2 Bft) S 184 0 min 0,0 UV-I 131 W/m 8,5 C 12,4 C 11,3 km/h (2 Bft)
12.10.2022 17:42 12,7 C 15,6 C 75 % 1024,9 hPa 0,0 l/m 9,4 km/h (2 Bft) S-SW 193 0 min 0,0 UV-I 136 W/m 8,4 C 10,9 C 14,5 km/h (3 Bft)
12.10.2022 17:45 12,7 C 15,6 C 75 % 1024,8 hPa 0,0 l/m 9,5 km/h (2 Bft) S 182 0 min 0,0 UV-I 103 W/m 8,4 C 10,8 C 12,9 km/h (3 Bft)
12.10.2022 17:48 12,5 C 13,3 C 75 % 1024,8 hPa 0,0 l/m 7,4 km/h (2 Bft) S 184 0 min 0,0 UV-I 43 W/m 8,2 C 11,9 C 14,5 km/h (3 Bft)
12.10.2022 17:51 12,3 C 12,2 C 76 % 1024,6 hPa 0,0 l/m 4,8 km/h (1 Bft) S 175 0 min 0,0 UV-I 28 W/m 8,2 C 12,3 C 9,7 km/h (2 Bft)
12.10.2022 17:54 12,1 C 11,7 C 76 % 1024,6 hPa 0,0 l/m 6,4 km/h (2 Bft) S-SW 201 0 min 0,0 UV-I 28 W/m 8,0 C 12,1 C 9,7 km/h (2 Bft)
12.10.2022 17:57 11,9 C 12,2 C 77 % 1024,8 hPa 0,0 l/m 6,5 km/h (2 Bft) S-SW 194 0 min 0,0 UV-I 47 W/m 8,0 C 11,9 C 9,7 km/h (2 Bft)
12.10.2022 18:00 11,7 C 11,7 C 77 % 1024,8 hPa 0,0 l/m 5,3 km/h (1 Bft) S-SW 210 0 min 0,0 UV-I 28 W/m 7,8 C 11,7 C 8,0 km/h (2 Bft)
12.10.2022 18:03 11,6 C 11,1 C 77 % 1024,7 hPa 0,0 l/m 4,9 km/h (1 Bft) S 178 0 min 0,0 UV-I 36 W/m 7,7 C 11,6 C 8,0 km/h (2 Bft)
12.10.2022 18:06 11,6 C 11,1 C 77 % 1024,5 hPa 0,0 l/m 3,5 km/h (1 Bft) S 176 0 min 0,0 UV-I 34 W/m 7,7 C 11,6 C 6,4 km/h (2 Bft)
12.10.2022 18:09 11,4 C 10,0 C 78 % 1024,8 hPa 0,0 l/m 3,6 km/h (1 Bft) S 188 0 min 0,0 UV-I 26 W/m 7,7 C 11,4 C 6,4 km/h (2 Bft)
12.10.2022 18:12 11,2 C 9,4 C 78 % 1024,6 hPa 0,0 l/m 4,6 km/h (1 Bft) S-SW 198 0 min 0,0 UV-I 24 W/m 7,5 C 11,2 C 8,0 km/h (2 Bft)
12.10.2022 18:15 11,1 C 9,4 C 79 % 1024,7 hPa 0,0 l/m 2,8 km/h (1 Bft) S-SW 197 0 min 0,0 UV-I 23 W/m 7,6 C 11,1 C 6,4 km/h (2 Bft)
12.10.2022 18:18 10,9 C 8,9 C 79 % 1024,8 hPa 0,0 l/m 3,6 km/h (1 Bft) S-SW 197 0 min 0,0 UV-I 21 W/m 7,4 C 10,9 C 4,8 km/h (1 Bft)
12.10.2022 18:21 10,8 C 8,9 C 79 % 1024,6 hPa 0,0 l/m 2,9 km/h (1 Bft) S-SW 197 0 min 0,0 UV-I 21 W/m 7,3 C 10,8 C 4,8 km/h (1 Bft)
12.10.2022 18:24 10,7 C 8,3 C 80 % 1024,6 hPa 0,0 l/m 2,9 km/h (1 Bft) S-SW 197 0 min 0,0 UV-I 21 W/m 7,4 C 10,7 C 4,8 km/h (1 Bft)
12.10.2022 18:27 10,6 C 8,3 C 80 % 1024,6 hPa 0,0 l/m 3,4 km/h (1 Bft) S-SW 197 0 min 0,0 UV-I 21 W/m 7,3 C 10,6 C 4,8 km/h (1 Bft)
12.10.2022 18:30 10,6 C 8,3 C 81 % 1024,6 hPa 0,0 l/m 2,5 km/h (1 Bft) S-SW 197 0 min 0,0 UV-I 20 W/m 7,5 C 10,6 C 4,8 km/h (1 Bft)
12.10.2022 18:33 10,4 C 8,3 C 81 % 1024,5 hPa 0,0 l/m 2,7 km/h (1 Bft) S-SW 197 0 min 0,0 UV-I 17 W/m 7,3 C 10,4 C 4,8 km/h (1 Bft)
12.10.2022 18:36 10,1 C 7,8 C 81 % 1024,5 hPa 0,0 l/m 0,7 km/h (0 Bft) S-SW 197 0 min 0,0 UV-I 14 W/m 7,0 C 10,1 C 3,2 km/h (1 Bft)
12.10.2022 18:39 9,7 C 7,8 C 82 % 1024,4 hPa 0,0 l/m 0,6 km/h (0 Bft) S-SW 197 0 min 0,0 UV-I 11 W/m 6,8 C 9,7 C 3,2 km/h (1 Bft)
12.10.2022 18:42 9,7 C 7,2 C 83 % 1024,4 hPa 0,0 l/m 4,1 km/h (1 Bft) O-SO 121 0 min 0,0 UV-I 8 W/m 7,0 C 9,7 C 6,4 km/h (2 Bft)
12.10.2022 18:45 9,7 C 7,8 C 83 % 1024,4 hPa 0,0 l/m 3,6 km/h (1 Bft) SO 134 0 min 0,0 UV-I 5 W/m 7,0 C 9,7 C 6,4 km/h (2 Bft)
12.10.2022 18:48 9,8 C 7,8 C 83 % 1024,6 hPa 0,0 l/m 2,0 km/h (1 Bft) SO 134 0 min 0,0 UV-I 1 W/m 7,1 C 9,8 C 4,8 km/h (1 Bft)
12.10.2022 18:51 9,7 C 7,8 C 83 % 1024,6 hPa 0,0 l/m 1,4 km/h (1 Bft) SO 134 0 min 0,0 UV-I 0 W/m 7,0 C 9,7 C 3,2 km/h (1 Bft)
12.10.2022 18:54 9,5 C 7,2 C 84 % 1024,4 hPa 0,0 l/m 1,0 km/h (0 Bft) SO 134 0 min 0,0 UV-I 0 W/m 6,9 C 9,5 C 3,2 km/h (1 Bft)
12.10.2022 18:57 9,2 C 6,7 C 84 % 1024,3 hPa 0,0 l/m 1,7 km/h (1 Bft) SO 134 0 min 0,0 UV-I 0 W/m 6,6 C 9,2 C 3,2 km/h (1 Bft)
12.10.2022 19:00 9,0 C 6,7 C 85 % 1024,4 hPa 0,0 l/m 3,0 km/h (1 Bft) SO 134 0 min 0,0 UV-I 0 W/m 6,6 C 9,0 C 6,4 km/h (2 Bft)
12.10.2022 19:03 8,8 C 6,1 C 85 % 1024,3 hPa 0,0 l/m 3,1 km/h (1 Bft) SO 134 0 min 0,0 UV-I 0 W/m 6,4 C 8,8 C 4,8 km/h (1 Bft)
12.10.2022 19:06 8,9 C 6,7 C 86 % 1024,6 hPa 0,0 l/m 0,9 km/h (0 Bft) SO 134 0 min 0,0 UV-I 0 W/m 6,7 C 8,9 C 1,6 km/h (1 Bft)
12.10.2022 19:09 8,9 C 6,1 C 86 % 1024,5 hPa 0,0 l/m 1,3 km/h (1 Bft) SO 134 0 min 0,0 UV-I 0 W/m 6,7 C 8,9 C 3,2 km/h (1 Bft)
12.10.2022 19:12 8,9 C 6,1 C 86 % 1024,6 hPa 0,0 l/m 0,7 km/h (0 Bft) SO 134 0 min 0,0 UV-I 0 W/m 6,7 C 8,9 C 3,2 km/h (1 Bft)
12.10.2022 19:15 8,8 C 6,1 C 86 % 1024,6 hPa 0,0 l/m 3,9 km/h (1 Bft) SO 142 0 min 0,0 UV-I 0 W/m 6,6 C 8,8 C 8,0 km/h (2 Bft)
12.10.2022 19:18 9,1 C 6,7 C 86 % 1024,7 hPa 0,0 l/m 4,1 km/h (1 Bft) S-SO 153 0 min 0,0 UV-I 0 W/m 6,9 C 9,1 C 8,0 km/h (2 Bft)
12.10.2022 19:21 9,1 C 6,7 C 85 % 1024,7 hPa 0,0 l/m 2,9 km/h (1 Bft) S-SO 154 0 min 0,0 UV-I 0 W/m 6,7 C 9,1 C 4,8 km/h (1 Bft)
12.10.2022 19:24 9,1 C 6,1 C 85 % 1024,8 hPa 0,0 l/m 2,3 km/h (1 Bft) S-SO 155 0 min 0,0 UV-I 0 W/m 6,7 C 9,1 C 4,8 km/h (1 Bft)
12.10.2022 19:27 9,0 C 6,7 C 85 % 1024,8 hPa 0,0 l/m 2,3 km/h (1 Bft) S-SO 155 0 min 0,0 UV-I 0 W/m 6,6 C 9,0 C 4,8 km/h (1 Bft)
12.10.2022 19:30 8,8 C 6,1 C 86 % 1024,9 hPa 0,0 l/m 2,2 km/h (1 Bft) S-SO 155 0 min 0,0 UV-I 0 W/m 6,6 C 8,8 C 3,2 km/h (1 Bft)
12.10.2022 19:33 8,8 C 6,1 C 86 % 1024,8 hPa 0,0 l/m 3,4 km/h (1 Bft) W-SW 249 0 min 0,0 UV-I 0 W/m 6,6 C 8,8 C 6,4 km/h (2 Bft)
12.10.2022 19:36 8,7 C 6,1 C 86 % 1024,8 hPa 0,0 l/m 3,3 km/h (1 Bft) W-SW 248 0 min 0,0 UV-I 0 W/m 6,5 C 8,7 C 4,8 km/h (1 Bft)
12.10.2022 19:39 8,6 C 6,1 C 86 % 1024,9 hPa 0,0 l/m 4,2 km/h (1 Bft) W-SW 238 0 min 0,0 UV-I 0 W/m 6,4 C 8,6 C 6,4 km/h (2 Bft)
12.10.2022 19:42 8,4 C 6,1 C 86 % 1025,0 hPa 0,0 l/m 4,4 km/h (1 Bft) SW 231 0 min 0,0 UV-I 0 W/m 6,2 C 8,4 C 6,4 km/h (2 Bft)
12.10.2022 19:45 8,4 C 6,1 C 86 % 1025,0 hPa 0,0 l/m 5,1 km/h (1 Bft) SW 227 0 min 0,0 UV-I 0 W/m 6,2 C 8,4 C 6,4 km/h (2 Bft)
12.10.2022 19:48 8,4 C 6,7 C 87 % 1025,1 hPa 0,0 l/m 5,7 km/h (1 Bft) SW 232 0 min 0,0 UV-I 0 W/m 6,4 C 8,4 C 8,0 km/h (2 Bft)
12.10.2022 19:51 8,4 C 6,7 C 87 % 1025,0 hPa 0,0 l/m 4,6 km/h (1 Bft) SW 232 0 min 0,0 UV-I 0 W/m 6,4 C 8,4 C 6,4 km/h (2 Bft)
12.10.2022 19:54 8,6 C 6,7 C 87 % 1025,0 hPa 0,0 l/m 4,6 km/h (1 Bft) SW 232 0 min 0,0 UV-I 0 W/m 6,6 C 8,6 C 6,4 km/h (2 Bft)
12.10.2022 19:57 8,7 C 6,7 C 87 % 1025,0 hPa 0,0 l/m 3,8 km/h (1 Bft) SW 232 0 min 0,0 UV-I 0 W/m 6,7 C 8,7 C 4,8 km/h (1 Bft)
12.10.2022 20:00 8,5 C 6,1 C 86 % 1025,0 hPa 0,0 l/m 2,2 km/h (1 Bft) SW 232 0 min 0,0 UV-I 0 W/m 6,3 C 8,5 C 3,2 km/h (1 Bft)
12.10.2022 20:03 8,3 C 6,1 C 86 % 1025,0 hPa 0,0 l/m 1,9 km/h (1 Bft) SW 232 0 min 0,0 UV-I 0 W/m 6,1 C 8,3 C 3,2 km/h (1 Bft)
12.10.2022 20:06 7,9 C 5,6 C 86 % 1025,0 hPa 0,0 l/m 0,7 km/h (0 Bft) SW 232 0 min 0,0 UV-I 0 W/m 5,7 C 7,9 C 1,6 km/h (1 Bft)
12.10.2022 20:09 7,7 C 5,6 C 87 % 1025,0 hPa 0,0 l/m 2,6 km/h (1 Bft) SW 232 0 min 0,0 UV-I 0 W/m 5,7 C 7,7 C 4,8 km/h (1 Bft)
12.10.2022 20:12 8,0 C 6,1 C 88 % 1025,0 hPa 0,0 l/m 3,4 km/h (1 Bft) SW 232 0 min 0,0 UV-I 0 W/m 6,1 C 8,0 C 4,8 km/h (1 Bft)
12.10.2022 20:15 7,8 C 6,1 C 87 % 1025,0 hPa 0,0 l/m 2,2 km/h (1 Bft) SW 232 0 min 0,0 UV-I 0 W/m 5,8 C 7,8 C 4,8 km/h (1 Bft)
12.10.2022 20:18 7,7 C 5,6 C 88 % 1025,0 hPa 0,0 l/m 2,9 km/h (1 Bft) SW 232 0 min 0,0 UV-I 0 W/m 5,8 C 7,7 C 4,8 km/h (1 Bft)
12.10.2022 20:21 7,5 C 5,6 C 88 % 1025,0 hPa 0,0 l/m 1,5 km/h (1 Bft) SW 232 0 min 0,0 UV-I 0 W/m 5,6 C 7,5 C 3,2 km/h (1 Bft)
12.10.2022 20:24 7,4 C 5,6 C 88 % 1025,1 hPa 0,0 l/m 1,6 km/h (1 Bft) SW 232 0 min 0,0 UV-I 0 W/m 5,5 C 7,4 C 4,8 km/h (1 Bft)
12.10.2022 20:27 7,4 C 5,6 C 89 % 1025,0 hPa 0,0 l/m 2,1 km/h (1 Bft) SW 232 0 min 0,0 UV-I 0 W/m 5,7 C 7,4 C 4,8 km/h (1 Bft)
12.10.2022 20:30 7,4 C 5,6 C 88 % 1025,0 hPa 0,0 l/m 3,3 km/h (1 Bft) SW 232 0 min 0,0 UV-I 0 W/m 5,5 C 7,4 C 4,8 km/h (1 Bft)
12.10.2022 20:33 7,6 C 5,6 C 89 % 1025,0 hPa 0,0 l/m 4,0 km/h (1 Bft) SW 229 0 min 0,0 UV-I 0 W/m 5,9 C 7,6 C 6,4 km/h (2 Bft)
12.10.2022 20:36 7,7 C 6,1 C 89 % 1024,9 hPa 0,0 l/m 4,5 km/h (1 Bft) SW 229 0 min 0,0 UV-I 0 W/m 6,0 C 7,7 C 6,4 km/h (2 Bft)
12.10.2022 20:39 7,7 C 6,1 C 89 % 1024,9 hPa 0,0 l/m 3,0 km/h (1 Bft) SW 229 0 min 0,0 UV-I 0 W/m 6,0 C 7,7 C 6,4 km/h (2 Bft)
12.10.2022 20:42 7,8 C 6,1 C 90 % 1025,0 hPa 0,0 l/m 2,5 km/h (1 Bft) SW 229 0 min 0,0 UV-I 0 W/m 6,3 C 7,8 C 4,8 km/h (1 Bft)
12.10.2022 20:45 7,8 C 6,1 C 90 % 1025,0 hPa 0,0 l/m 4,2 km/h (1 Bft) W-SW 245 0 min 0,0 UV-I 0 W/m 6,3 C 7,8 C 6,4 km/h (2 Bft)
12.10.2022 20:48 7,8 C 6,1 C 90 % 1025,1 hPa 0,0 l/m 4,7 km/h (1 Bft) SW 234 0 min 0,0 UV-I 0 W/m 6,3 C 7,8 C 6,4 km/h (2 Bft)
12.10.2022 20:51 7,3 C 5,6 C 88 % 1024,9 hPa 0,0 l/m 1,1 km/h (1 Bft) SW 234 0 min 0,0 UV-I 0 W/m 5,4 C 7,3 C 4,8 km/h (1 Bft)
12.10.2022 20:54 7,1 C 5,6 C 89 % 1024,9 hPa 0,0 l/m 2,2 km/h (1 Bft) SW 234 0 min 0,0 UV-I 0 W/m 5,4 C 7,1 C 3,2 km/h (1 Bft)
12.10.2022 20:57 7,1 C 5,0 C 90 % 1024,9 hPa 0,0 l/m 1,9 km/h (1 Bft) SW 234 0 min 0,0 UV-I 0 W/m 5,6 C 7,1 C 4,8 km/h (1 Bft)
12.10.2022 21:00 6,9 C 4,4 C 89 % 1024,9 hPa 0,0 l/m 0,6 km/h (0 Bft) SW 234 0 min 0,0 UV-I 0 W/m 5,2 C 6,9 C 3,2 km/h (1 Bft)
12.10.2022 21:03 6,7 C 4,4 C 90 % 1024,9 hPa 0,0 l/m 1,4 km/h (1 Bft) SW 234 0 min 0,0 UV-I 0 W/m 5,2 C 6,7 C 3,2 km/h (1 Bft)
12.10.2022 21:09 6,9 C 4,4 C 91 % 1024,9 hPa 0,0 l/m 0,6 km/h (0 Bft) SW 234 0 min 0,0 UV-I 0 W/m 5,5 C 6,9 C 1,6 km/h (1 Bft)
12.10.2022 21:12 6,8 C 3,9 C 90 % 1025,0 hPa 0,0 l/m 0,2 km/h (0 Bft) SW 234 0 min 0,0 UV-I 0 W/m 5,3 C 6,8 C 1,6 km/h (1 Bft)
12.10.2022 21:15 6,8 C 3,9 C 91 % 1025,0 hPa 0,0 l/m 1,5 km/h (1 Bft) SW 234 0 min 0,0 UV-I 0 W/m 5,4 C 6,8 C 4,8 km/h (1 Bft)
12.10.2022 21:18 6,8 C 3,9 C 91 % 1024,8 hPa 0,0 l/m 1,7 km/h (1 Bft) SW 234 0 min 0,0 UV-I 0 W/m 5,4 C 6,8 C 3,2 km/h (1 Bft)
12.10.2022 21:21 6,6 C 3,9 C 90 % 1024,8 hPa 0,0 l/m 0,4 km/h (0 Bft) SW 234 0 min 0,0 UV-I 0 W/m 5,1 C 6,6 C 1,6 km/h (1 Bft)
12.10.2022 21:24 6,4 C 3,9 C 90 % 1024,9 hPa 0,0 l/m 2,3 km/h (1 Bft) N 360 0 min 0,0 UV-I 0 W/m 4,9 C 6,4 C 4,8 km/h (1 Bft)
12.10.2022 21:27 6,8 C 4,4 C 92 % 1025,0 hPa 0,0 l/m 3,9 km/h (1 Bft) SW 234 0 min 0,0 UV-I 0 W/m 5,6 C 6,8 C 4,8 km/h (1 Bft)
12.10.2022 21:30 6,9 C 3,9 C 91 % 1024,9 hPa 0,0 l/m 2,8 km/h (1 Bft) SW 234 0 min 0,0 UV-I 0 W/m 5,5 C 6,9 C 4,8 km/h (1 Bft)
12.10.2022 21:33 7,1 C 4,4 C 91 % 1025,0 hPa 0,0 l/m 3,7 km/h (1 Bft) SW 234 0 min 0,0 UV-I 0 W/m 5,7 C 7,1 C 4,8 km/h (1 Bft)
12.10.2022 21:36 6,9 C 3,9 C 91 % 1025,0 hPa 0,0 l/m 1,8 km/h (1 Bft) SW 234 0 min 0,0 UV-I 0 W/m 5,5 C 6,9 C 3,2 km/h (1 Bft)
12.10.2022 21:39 6,5 C 3,3 C 90 % 1024,9 hPa 0,0 l/m 2,6 km/h (1 Bft) SW 234 0 min 0,0 UV-I 0 W/m 5,0 C 6,5 C 4,8 km/h (1 Bft)
12.10.2022 21:42 6,8 C 4,4 C 92 % 1025,0 hPa 0,0 l/m 3,9 km/h (1 Bft) SW 234 0 min 0,0 UV-I 0 W/m 5,6 C 6,8 C 6,4 km/h (2 Bft)
12.10.2022 21:45 6,4 C 3,9 C 91 % 1024,8 hPa 0,0 l/m 0,9 km/h (0 Bft) SW 234 0 min 0,0 UV-I 0 W/m 5,0 C 6,4 C 3,2 km/h (1 Bft)
12.10.2022 21:48 6,1 C 3,3 C 91 % 1024,7 hPa 0,0 l/m 0,0 km/h (0 Bft) SW 234 0 min 0,0 UV-I 0 W/m 4,7 C 6,1 C 0,0 km/h (0 Bft)
12.10.2022 21:51 5,8 C 3,3 C 91 % 1024,7 hPa 0,0 l/m 0,0 km/h (0 Bft) SW 234 0 min 0,0 UV-I 0 W/m 4,4 C 5,8 C 0,0 km/h (0 Bft)
12.10.2022 21:54 5,7 C 3,3 C 91 % 1024,6 hPa 0,0 l/m 0,0 km/h (0 Bft) SW 234 0 min 0,0 UV-I 0 W/m 4,3 C 5,7 C 0,0 km/h (0 Bft)
12.10.2022 21:57 6,0 C 3,3 C 92 % 1024,7 hPa 0,0 l/m 0,0 km/h (0 Bft) SW 234 0 min 0,0 UV-I 0 W/m 4,8 C 6,0 C 0,0 km/h (0 Bft)
12.10.2022 22:00 6,2 C 3,9 C 92 % 1024,7 hPa 0,0 l/m 0,0 km/h (0 Bft) SW 234 0 min 0,0 UV-I 0 W/m 5,0 C 6,2 C 0,0 km/h (0 Bft)
12.10.2022 22:03 6,0 C 3,3 C 91 % 1024,7 hPa 0,0 l/m 0,0 km/h (0 Bft) SW 234 0 min 0,0 UV-I 0 W/m 4,6 C 6,0 C 0,0 km/h (0 Bft)
12.10.2022 22:06 5,9 C 3,3 C 92 % 1024,7 hPa 0,0 l/m 0,0 km/h (0 Bft) SW 234 0 min 0,0 UV-I 0 W/m 4,7 C 5,9 C 0,0 km/h (0 Bft)
12.10.2022 22:09 5,8 C 3,3 C 92 % 1024,7 hPa 0,0 l/m 0,0 km/h (0 Bft) SW 234 0 min 0,0 UV-I 0 W/m 4,6 C 5,8 C 0,0 km/h (0 Bft)
12.10.2022 22:12 5,7 C 3,3 C 92 % 1024,7 hPa 0,0 l/m 0,0 km/h (0 Bft) SW 234 0 min 0,0 UV-I 0 W/m 4,5 C 5,7 C 0,0 km/h (0 Bft)
12.10.2022 22:15 6,1 C 3,3 C 92 % 1024,7 hPa 0,0 l/m 0,0 km/h (0 Bft) SW 234 0 min 0,0 UV-I 0 W/m 4,9 C 6,1 C 0,0 km/h (0 Bft)
12.10.2022 22:18 5,8 C 3,3 C 92 % 1024,6 hPa 0,0 l/m 0,0 km/h (0 Bft) SW 234 0 min 0,0 UV-I 0 W/m 4,6 C 5,8 C 0,0 km/h (0 Bft)
12.10.2022 22:21 5,6 C 3,3 C 92 % 1024,7 hPa 0,0 l/m 0,0 km/h (0 Bft) SW 234 0 min 0,0 UV-I 0 W/m 4,4 C 5,6 C 0,0 km/h (0 Bft)
12.10.2022 22:24 5,7 C 3,3 C 92 % 1024,7 hPa 0,0 l/m 0,0 km/h (0 Bft) SW 234 0 min 0,0 UV-I 0 W/m 4,5 C 5,7 C 0,0 km/h (0 Bft)
12.10.2022 22:27 5,9 C 3,3 C 92 % 1024,7 hPa 0,0 l/m 0,0 km/h (0 Bft) SW 234 0 min 0,0 UV-I 0 W/m 4,7 C 5,9 C 0,0 km/h (0 Bft)
12.10.2022 22:30 5,8 C 2,8 C 92 % 1024,7 hPa 0,0 l/m 0,0 km/h (0 Bft) SW 234 0 min 0,0 UV-I 0 W/m 4,6 C 5,8 C 0,0 km/h (0 Bft)
12.10.2022 22:33 5,6 C 3,3 C 92 % 1024,7 hPa 0,0 l/m 0,9 km/h (0 Bft) SW 234 0 min 0,0 UV-I 0 W/m 4,4 C 5,6 C 3,2 km/h (1 Bft)
12.10.2022 22:36 5,2 C 2,8 C 91 % 1024,7 hPa 0,0 l/m 0,0 km/h (0 Bft) SW 234 0 min 0,0 UV-I 0 W/m 3,9 C 5,2 C 0,0 km/h (0 Bft)
12.10.2022 22:39 5,2 C 2,8 C 92 % 1024,7 hPa 0,0 l/m 0,4 km/h (0 Bft) SW 234 0 min 0,0 UV-I 0 W/m 4,0 C 5,2 C 3,2 km/h (1 Bft)
12.10.2022 22:42 4,8 C 2,2 C 91 % 1024,7 hPa 0,0 l/m 0,0 km/h (0 Bft) SW 234 0 min 0,0 UV-I 0 W/m 3,5 C 4,8 C 0,0 km/h (0 Bft)
12.10.2022 22:45 4,6 C 2,2 C 91 % 1024,7 hPa 0,0 l/m 0,0 km/h (0 Bft) SW 234 0 min 0,0 UV-I 0 W/m 3,3 C 4,6 C 0,0 km/h (0 Bft)
12.10.2022 22:48 4,3 C 2,2 C 92 % 1024,7 hPa 0,0 l/m 0,0 km/h (0 Bft) SW 234 0 min 0,0 UV-I 0 W/m 3,1 C 4,3 C 0,0 km/h (0 Bft)
12.10.2022 22:51 4,3 C 1,7 C 92 % 1024,7 hPa 0,0 l/m 0,0 km/h (0 Bft) SW 234 0 min 0,0 UV-I 0 W/m 3,1 C 4,3 C 0,0 km/h (0 Bft)
12.10.2022 22:54 4,3 C 2,2 C 92 % 1024,7 hPa 0,0 l/m 0,0 km/h (0 Bft) SW 234 0 min 0,0 UV-I 0 W/m 3,1 C 4,3 C 0,0 km/h (0 Bft)
12.10.2022 22:57 4,4 C 2,2 C 92 % 1024,7 hPa 0,0 l/m 1,0 km/h (0 Bft) SW 234 0 min 0,0 UV-I 0 W/m 3,2 C 4,4 C 3,2 km/h (1 Bft)
12.10.2022 23:00 4,4 C 2,2 C 92 % 1024,6 hPa 0,0 l/m 0,3 km/h (0 Bft) SW 234 0 min 0,0 UV-I 0 W/m 3,2 C 4,4 C 1,6 km/h (1 Bft)
12.10.2022 23:03 4,2 C 1,7 C 92 % 1024,7 hPa 0,0 l/m 0,4 km/h (0 Bft) SW 234 0 min 0,0 UV-I 0 W/m 3,0 C 4,2 C 1,6 km/h (1 Bft)
12.10.2022 23:06 4,1 C 1,7 C 92 % 1024,6 hPa 0,0 l/m 0,0 km/h (0 Bft) SW 234 0 min 0,0 UV-I 0 W/m 2,9 C 4,1 C 0,0 km/h (0 Bft)
12.10.2022 23:09 4,1 C 1,7 C 92 % 1024,7 hPa 0,0 l/m 0,0 km/h (0 Bft) SW 234 0 min 0,0 UV-I 0 W/m 2,9 C 4,1 C 0,0 km/h (0 Bft)
12.10.2022 23:12 4,0 C 1,7 C 92 % 1024,7 hPa 0,0 l/m 0,0 km/h (0 Bft) SW 234 0 min 0,0 UV-I 0 W/m 2,8 C 4,0 C 0,0 km/h (0 Bft)
12.10.2022 23:15 4,4 C 1,7 C 93 % 1024,7 hPa 0,0 l/m 2,6 km/h (1 Bft) SW 234 0 min 0,0 UV-I 0 W/m 3,4 C 4,4 C 4,8 km/h (1 Bft)
12.10.2022 23:18 4,3 C 1,7 C 92 % 1024,8 hPa 0,0 l/m 1,1 km/h (1 Bft) SW 234 0 min 0,0 UV-I 0 W/m 3,1 C 4,3 C 3,2 km/h (1 Bft)
12.10.2022 23:21 4,3 C 1,7 C 92 % 1024,8 hPa 0,0 l/m 3,2 km/h (1 Bft) SW 236 0 min 0,0 UV-I 0 W/m 3,1 C 4,3 C 6,4 km/h (2 Bft)
12.10.2022 23:24 4,3 C 2,2 C 93 % 1024,7 hPa 0,0 l/m 2,4 km/h (1 Bft) SW 236 0 min 0,0 UV-I 0 W/m 3,3 C 4,3 C 4,8 km/h (1 Bft)
12.10.2022 23:27 4,6 C 2,8 C 93 % 1024,8 hPa 0,0 l/m 2,9 km/h (1 Bft) SW 236 0 min 0,0 UV-I 0 W/m 3,6 C 4,6 C 4,8 km/h (1 Bft)
12.10.2022 23:30 4,6 C 2,8 C 93 % 1024,8 hPa 0,0 l/m 2,2 km/h (1 Bft) SW 236 0 min 0,0 UV-I 0 W/m 3,6 C 4,6 C 3,2 km/h (1 Bft)
12.10.2022 23:33 4,3 C 2,8 C 93 % 1024,8 hPa 0,0 l/m 2,5 km/h (1 Bft) SW 236 0 min 0,0 UV-I 0 W/m 3,3 C 4,3 C 4,8 km/h (1 Bft)
12.10.2022 23:36 4,6 C 2,8 C 93 % 1024,8 hPa 0,0 l/m 2,2 km/h (1 Bft) SW 236 0 min 0,0 UV-I 0 W/m 3,6 C 4,6 C 4,8 km/h (1 Bft)
12.10.2022 23:39 5,2 C 3,3 C 93 % 1024,9 hPa 0,0 l/m 3,2 km/h (1 Bft) SW 236 0 min 0,0 UV-I 0 W/m 4,2 C 5,2 C 4,8 km/h (1 Bft)
12.10.2022 23:42 6,1 C 3,9 C 94 % 1024,7 hPa 0,0 l/m 3,9 km/h (1 Bft) SW 236 0 min 0,0 UV-I 0 W/m 5,2 C 6,1 C 4,8 km/h (1 Bft)
12.10.2022 23:45 6,2 C 4,4 C 94 % 1024,8 hPa 0,0 l/m 2,4 km/h (1 Bft) SW 236 0 min 0,0 UV-I 0 W/m 5,3 C 6,2 C 4,8 km/h (1 Bft)
12.10.2022 23:48 6,6 C 4,4 C 94 % 1024,8 hPa 0,0 l/m 2,8 km/h (1 Bft) SW 236 0 min 0,0 UV-I 0 W/m 5,7 C 6,6 C 4,8 km/h (1 Bft)
12.10.2022 23:51 6,6 C 4,4 C 94 % 1024,8 hPa 0,0 l/m 1,4 km/h (1 Bft) SW 236 0 min 0,0 UV-I 0 W/m 5,7 C 6,6 C 3,2 km/h (1 Bft)
12.10.2022 23:54 6,9 C 5,0 C 93 % 1024,7 hPa 0,0 l/m 1,6 km/h (1 Bft) SW 236 0 min 0,0 UV-I 0 W/m 5,8 C 6,9 C 3,2 km/h (1 Bft)
12.10.2022 23:57 7,1 C 5,0 C 93 % 1024,7 hPa 0,0 l/m 0,8 km/h (0 Bft) SW 236 0 min 0,0 UV-I 0 W/m 6,0 C 7,1 C 1,6 km/h (1 Bft)
_ Min-Zeit 06:51 03:57 16:09 18:57 - 00:12 - - - - - 07:33 07:33 00:12
Minimum _ -2,2 C -3,3 C 72 % 1024,3 hPa - 0,0 km/h (0 Bft) - - - - - -3,3 C -2,2 C 0,0 km/h (0 Bft)
_ Max-Zeit 16:00 15:54 09:54 01:39 09:21 14:48 - - 12:21 14:24 15:09 14:33 15:57 14:48
Maximum _ 13,8 C 22,2 C 94 % 1027,8 hPa 0,2 l/m 15,4 km/h
S-SW (3 Bft)
- - 3 min 2,6 UV-I 622 W/m 9,5 C 13,4 C 20,9 km/h
S (4 Bft)
Durchschnitt _ 5,0 C 5,3 C 88 % 1026,2 hPa #0,2 l/m 2,7 km/h (1 Bft) SW - #1:45 h 1,4 UV-I 213 W/m 3,1 C 4,7 C 4,6 km/h (1 Bft)